Wetterdaten: Dienstag, 27.03.2012
Datum Zeit Temp. Innen Temp. Aussen UV X Diff Temp. Feuchte Inne Feuchte Auss Sonnenschein Luftdruck Regen ab 0,1 Wind Sonnenschein T Regendauer Windben
27.03.2012 00:00 19,2 C 10,9 C 0,0 UV-I 0,0 C 48 % 73 % 0 % 1036,2 hPa 0,0 l/m 2,8 km/h (1 Bft) 0 min 0 min 0,0 km/h (0 Bft)
27.03.2012 00:02 19,2 C 10,9 C 0,0 UV-I 0,0 C 48 % 73 % 0 % 1036,2 hPa 0,0 l/m 2,4 km/h (1 Bft) 0 min 0 min 0,0 km/h (0 Bft)
27.03.2012 00:04 19,1 C 10,8 C 0,0 UV-I 0,0 C 48 % 74 % 0 % 1036,2 hPa 0,0 l/m 2,4 km/h (1 Bft) 0 min 0 min 4,4 km/h (1 Bft)
27.03.2012 00:06 19,1 C 10,8 C 0,0 UV-I 0,0 C 48 % 74 % 0 % 1036,5 hPa 0,0 l/m 1,6 km/h (1 Bft) 0 min 0 min 4,4 km/h (1 Bft)
27.03.2012 00:08 19,1 C 10,8 C 0,0 UV-I 0,0 C 48 % 74 % 0 % 1036,5 hPa 0,0 l/m 1,6 km/h (1 Bft) 0 min 0 min 4,8 km/h (1 Bft)
27.03.2012 00:10 19,1 C 10,8 C 0,0 UV-I 0,0 C 48 % 74 % 0 % 1036,5 hPa 0,0 l/m 2,0 km/h (1 Bft) 0 min 0 min 4,0 km/h (1 Bft)
27.03.2012 00:12 19,1 C 10,7 C 0,0 UV-I 0,0 C 48 % 74 % 0 % 1036,5 hPa 0,0 l/m 2,8 km/h (1 Bft) 0 min 0 min 7,2 km/h (2 Bft)
27.03.2012 00:14 19,1 C 10,7 C 0,0 UV-I 0,0 C 48 % 74 % 0 % 1036,5 hPa 0,0 l/m 3,6 km/h (1 Bft) 0 min 0 min 7,2 km/h (2 Bft)
27.03.2012 00:16 19,1 C 10,7 C 0,0 UV-I 0,0 C 48 % 74 % 0 % 1036,5 hPa 0,0 l/m 4,4 km/h (1 Bft) 0 min 0 min 6,4 km/h (2 Bft)
27.03.2012 00:18 19,1 C 10,6 C 0,0 UV-I 0,0 C 48 % 74 % 0 % 1036,5 hPa 0,0 l/m 5,2 km/h (1 Bft) 0 min 0 min 8,0 km/h (2 Bft)
27.03.2012 00:20 19,0 C 10,7 C 0,0 UV-I 0,0 C 48 % 74 % 0 % 1036,5 hPa 0,0 l/m 5,6 km/h (1 Bft) 0 min 0 min 6,4 km/h (2 Bft)
27.03.2012 00:22 19,0 C 10,7 C 0,0 UV-I 0,0 C 49 % 74 % 0 % 1036,5 hPa 0,0 l/m 4,8 km/h (1 Bft) 0 min 0 min 5,6 km/h (1 Bft)
27.03.2012 00:24 19,0 C 10,5 C 0,0 UV-I 0,0 C 49 % 75 % 0 % 1036,5 hPa 0,0 l/m 4,4 km/h (1 Bft) 0 min 0 min 4,0 km/h (1 Bft)
27.03.2012 00:26 19,0 C 10,5 C 0,0 UV-I 0,0 C 49 % 75 % 0 % 1036,6 hPa 0,0 l/m 4,4 km/h (1 Bft) 0 min 0 min 7,2 km/h (2 Bft)
27.03.2012 00:28 19,0 C 10,5 C 0,0 UV-I 0,0 C 49 % 75 % 0 % 1036,6 hPa 0,0 l/m 4,0 km/h (1 Bft) 0 min 0 min 6,0 km/h (2 Bft)
27.03.2012 00:30 19,0 C 10,4 C 0,0 UV-I 0,0 C 49 % 75 % 0 % 1036,6 hPa 0,0 l/m 4,0 km/h (1 Bft) 0 min 0 min 4,4 km/h (1 Bft)
27.03.2012 00:32 19,0 C 10,4 C 0,0 UV-I 0,0 C 49 % 75 % 0 % 1036,6 hPa 0,0 l/m 4,4 km/h (1 Bft) 0 min 0 min 5,6 km/h (1 Bft)
27.03.2012 00:34 19,0 C 10,4 C 0,0 UV-I 0,0 C 49 % 75 % 0 % 1036,6 hPa 0,0 l/m 4,8 km/h (1 Bft) 0 min 0 min 6,0 km/h (2 Bft)
27.03.2012 00:36 19,0 C 10,4 C 0,0 UV-I 0,0 C 49 % 75 % 0 % 1036,6 hPa 0,0 l/m 4,8 km/h (1 Bft) 0 min 0 min 8,4 km/h (2 Bft)
27.03.2012 00:38 19,0 C 10,3 C 0,0 UV-I 0,0 C 49 % 75 % 0 % 1036,6 hPa 0,0 l/m 4,0 km/h (1 Bft) 0 min 0 min 8,4 km/h (2 Bft)
27.03.2012 00:40 19,0 C 10,2 C 0,0 UV-I 0,0 C 49 % 75 % 0 % 1036,6 hPa 0,0 l/m 3,2 km/h (1 Bft) 0 min 0 min 0,0 km/h (0 Bft)
27.03.2012 00:42 19,0 C 10,3 C 0,0 UV-I 0,0 C 49 % 75 % 0 % 1036,6 hPa 0,0 l/m 2,0 km/h (1 Bft) 0 min 0 min 0,0 km/h (0 Bft)
27.03.2012 00:44 19,0 C 10,2 C 0,0 UV-I 0,0 C 49 % 75 % 0 % 1036,6 hPa 0,0 l/m 1,6 km/h (1 Bft) 0 min 0 min 0,0 km/h (0 Bft)
27.03.2012 00:46 19,0 C 10,1 C 0,0 UV-I 0,0 C 49 % 75 % 0 % 1036,8 hPa 0,0 l/m 0,8 km/h (0 Bft) 0 min 0 min 0,0 km/h (0 Bft)
27.03.2012 00:48 19,0 C 10,0 C 0,0 UV-I 0,0 C 49 % 76 % 0 % 1036,8 hPa 0,0 l/m 0,4 km/h (0 Bft) 0 min 0 min 4,4 km/h (1 Bft)
27.03.2012 00:50 19,0 C 10,0 C 0,0 UV-I 0,0 C 49 % 76 % 0 % 1036,8 hPa 0,0 l/m 0,4 km/h (0 Bft) 0 min 0 min 0,0 km/h (0 Bft)
27.03.2012 00:52 18,9 C 9,9 C 0,0 UV-I 0,0 C 49 % 76 % 0 % 1036,8 hPa 0,0 l/m 0,4 km/h (0 Bft) 0 min 0 min 0,0 km/h (0 Bft)
27.03.2012 00:54 18,9 C 9,9 C 0,0 UV-I 0,0 C 49 % 76 % 0 % 1036,8 hPa 0,0 l/m 0,4 km/h (0 Bft) 0 min 0 min 0,0 km/h (0 Bft)
27.03.2012 00:56 18,9 C 9,9 C 0,0 UV-I 0,0 C 49 % 76 % 0 % 1036,8 hPa 0,0 l/m 0,4 km/h (0 Bft) 0 min 0 min 0,0 km/h (0 Bft)
27.03.2012 00:58 18,9 C 9,7 C 0,0 UV-I 0,0 C 49 % 75 % 0 % 1036,8 hPa 0,0 l/m 0,4 km/h (0 Bft) 0 min 0 min 0,0 km/h (0 Bft)
27.03.2012 01:00 18,9 C 9,7 C 0,0 UV-I 0,0 C 49 % 75 % 0 % 1036,8 hPa 0,0 l/m 0,4 km/h (0 Bft) 0 min 0 min 0,0 km/h (0 Bft)
27.03.2012 01:02 18,9 C 9,6 C 0,0 UV-I 0,0 C 49 % 75 % 0 % 1036,8 hPa 0,0 l/m 0,4 km/h (0 Bft) 0 min 0 min 0,0 km/h (0 Bft)
27.03.2012 01:04 18,9 C 9,6 C 0,0 UV-I 0,0 C 49 % 75 % 0 % 1036,8 hPa 0,0 l/m 0,0 km/h (0 Bft) 0 min 0 min 0,0 km/h (0 Bft)
27.03.2012 01:06 18,9 C 9,4 C 0,0 UV-I 0,0 C 49 % 75 % 0 % 1036,5 hPa 0,0 l/m 0,0 km/h (0 Bft) 0 min 0 min 0,0 km/h (0 Bft)
27.03.2012 01:08 18,9 C 9,4 C 0,0 UV-I 0,0 C 49 % 76 % 0 % 1036,5 hPa 0,0 l/m 0,0 km/h (0 Bft) 0 min 0 min 0,0 km/h (0 Bft)
27.03.2012 01:10 18,8 C 9,2 C 0,0 UV-I 0,0 C 49 % 76 % 0 % 1036,5 hPa 0,0 l/m 0,0 km/h (0 Bft) 0 min 0 min 0,0 km/h (0 Bft)
27.03.2012 01:12 18,9 C 9,2 C 0,0 UV-I 0,0 C 49 % 76 % 0 % 1036,5 hPa 0,0 l/m 0,0 km/h (0 Bft) 0 min 0 min 0,0 km/h (0 Bft)
27.03.2012 01:14 18,9 C 9,1 C 0,0 UV-I 0,0 C 49 % 76 % 0 % 1036,5 hPa 0,0 l/m 0,0 km/h (0 Bft) 0 min 0 min 0,0 km/h (0 Bft)
27.03.2012 01:16 18,8 C 9,1 C 0,0 UV-I 0,0 C 49 % 76 % 0 % 1036,5 hPa 0,0 l/m 0,0 km/h (0 Bft) 0 min 0 min 0,0 km/h (0 Bft)
27.03.2012 01:18 18,9 C 8,9 C 0,0 UV-I 0,0 C 49 % 77 % 0 % 1036,5 hPa 0,0 l/m 0,0 km/h (0 Bft) 0 min 0 min 0,0 km/h (0 Bft)
27.03.2012 01:20 18,8 C 8,8 C 0,0 UV-I 0,0 C 49 % 77 % 0 % 1036,5 hPa 0,0 l/m 0,0 km/h (0 Bft) 0 min 0 min 0,0 km/h (0 Bft)
27.03.2012 01:22 18,8 C 8,8 C 0,0 UV-I 0,0 C 49 % 77 % 0 % 1036,5 hPa 0,0 l/m 0,0 km/h (0 Bft) 0 min 0 min 0,0 km/h (0 Bft)
27.03.2012 01:24 18,8 C 8,7 C 0,0 UV-I 0,0 C 49 % 77 % 0 % 1036,5 hPa 0,0 l/m 0,0 km/h (0 Bft) 0 min 0 min 0,0 km/h (0 Bft)
27.03.2012 01:26 18,8 C 8,7 C 0,0 UV-I 0,0 C 49 % 77 % 0 % 1037,1 hPa 0,0 l/m 0,0 km/h (0 Bft) 0 min 0 min 0,0 km/h (0 Bft)
27.03.2012 01:28 18,8 C 8,6 C 0,0 UV-I 0,0 C 49 % 77 % 0 % 1037,1 hPa 0,0 l/m 0,0 km/h (0 Bft) 0 min 0 min 0,0 km/h (0 Bft)
27.03.2012 01:30 18,8 C 8,5 C 0,0 UV-I 0,0 C 49 % 77 % 0 % 1037,1 hPa 0,0 l/m 0,0 km/h (0 Bft) 0 min 0 min 0,0 km/h (0 Bft)
27.03.2012 01:32 18,8 C 8,5 C 0,0 UV-I 0,0 C 49 % 77 % 0 % 1037,1 hPa 0,0 l/m 0,0 km/h (0 Bft) 0 min 0 min 0,0 km/h (0 Bft)
27.03.2012 01:34 18,8 C 8,4 C 0,0 UV-I 0,0 C 49 % 78 % 0 % 1037,1 hPa 0,0 l/m 0,0 km/h (0 Bft) 0 min 0 min 0,0 km/h (0 Bft)
27.03.2012 01:36 18,8 C 8,3 C 0,0 UV-I 0,0 C 49 % 78 % 0 % 1037,1 hPa 0,0 l/m 0,0 km/h (0 Bft) 0 min 0 min 0,0 km/h (0 Bft)
27.03.2012 01:38 18,8 C 8,3 C 0,0 UV-I 0,0 C 49 % 78 % 0 % 1037,1 hPa 0,0 l/m 0,0 km/h (0 Bft) 0 min 0 min 0,0 km/h (0 Bft)
27.03.2012 01:40 18,8 C 8,1 C 0,0 UV-I 0,0 C 49 % 78 % 0 % 1037,1 hPa 0,0 l/m 0,0 km/h (0 Bft) 0 min 0 min 0,0 km/h (0 Bft)
27.03.2012 01:42 18,8 C 8,1 C 0,0 UV-I 0,0 C 49 % 78 % 0 % 1037,1 hPa 0,0 l/m 0,0 km/h (0 Bft) 0 min 0 min 0,0 km/h (0 Bft)
27.03.2012 01:44 18,8 C 8,0 C 0,0 UV-I 0,0 C 49 % 78 % 0 % 1037,1 hPa 0,0 l/m 0,0 km/h (0 Bft) 0 min 0 min 0,0 km/h (0 Bft)
27.03.2012 01:46 18,8 C 8,0 C 0,0 UV-I 0,0 C 49 % 78 % 0 % 1036,6 hPa 0,0 l/m 0,0 km/h (0 Bft) 0 min 0 min 0,0 km/h (0 Bft)
27.03.2012 01:48 18,8 C 7,9 C 0,0 UV-I 0,0 C 49 % 79 % 0 % 1036,6 hPa 0,0 l/m 0,0 km/h (0 Bft) 0 min 0 min 0,0 km/h (0 Bft)
27.03.2012 01:50 18,8 C 7,8 C 0,0 UV-I 0,0 C 49 % 79 % 0 % 1036,6 hPa 0,0 l/m 0,0 km/h (0 Bft) 0 min 0 min 0,0 km/h (0 Bft)
27.03.2012 01:52 18,8 C 7,9 C 0,0 UV-I 0,0 C 49 % 79 % 0 % 1036,6 hPa 0,0 l/m 0,0 km/h (0 Bft) 0 min 0 min 0,0 km/h (0 Bft)
27.03.2012 01:54 18,7 C 7,7 C 0,0 UV-I 0,0 C 49 % 79 % 0 % 1036,6 hPa 0,0 l/m 0,0 km/h (0 Bft) 0 min 0 min 0,0 km/h (0 Bft)
27.03.2012 01:56 18,7 C 7,6 C 0,0 UV-I 0,0 C 49 % 79 % 0 % 1036,6 hPa 0,0 l/m 0,0 km/h (0 Bft) 0 min 0 min 0,0 km/h (0 Bft)
27.03.2012 01:58 18,7 C 7,6 C 0,0 UV-I 0,0 C 49 % 79 % 0 % 1036,6 hPa 0,0 l/m 0,0 km/h (0 Bft) 0 min 0 min 0,0 km/h (0 Bft)
27.03.2012 02:00 18,7 C 7,6 C 0,0 UV-I 0,0 C 49 % 79 % 0 % 1036,6 hPa 0,0 l/m 0,0 km/h (0 Bft) 0 min 0 min 0,0 km/h (0 Bft)
27.03.2012 02:02 18,7 C 7,5 C 0,0 UV-I 0,0 C 49 % 79 % 0 % 1036,6 hPa 0,0 l/m 0,0 km/h (0 Bft) 0 min 0 min 0,0 km/h (0 Bft)
27.03.2012 02:04 18,7 C 7,5 C 0,0 UV-I 0,0 C 49 % 79 % 0 % 1036,6 hPa 0,0 l/m 0,0 km/h (0 Bft) 0 min 0 min 0,0 km/h (0 Bft)
27.03.2012 02:06 18,7 C 7,3 C 0,0 UV-I 0,0 C 49 % 79 % 0 % 1036,0 hPa 0,0 l/m 0,0 km/h (0 Bft) 0 min 0 min 0,0 km/h (0 Bft)
27.03.2012 02:08 18,7 C 7,3 C 0,0 UV-I 0,0 C 49 % 80 % 0 % 1036,0 hPa 0,0 l/m 0,0 km/h (0 Bft) 0 min 0 min 0,0 km/h (0 Bft)
27.03.2012 02:10 18,6 C 7,2 C 0,0 UV-I 0,0 C 49 % 80 % 0 % 1036,0 hPa 0,0 l/m 0,0 km/h (0 Bft) 0 min 0 min 0,0 km/h (0 Bft)
27.03.2012 02:12 18,7 C 7,3 C 0,0 UV-I 0,0 C 49 % 80 % 0 % 1036,0 hPa 0,0 l/m 0,0 km/h (0 Bft) 0 min 0 min 0,0 km/h (0 Bft)
27.03.2012 02:14 18,7 C 7,1 C 0,0 UV-I 0,0 C 49 % 80 % 0 % 1036,0 hPa 0,0 l/m 0,0 km/h (0 Bft) 0 min 0 min 0,0 km/h (0 Bft)
27.03.2012 02:16 18,6 C 7,0 C 0,0 UV-I 0,0 C 49 % 80 % 0 % 1036,0 hPa 0,0 l/m 0,0 km/h (0 Bft) 0 min 0 min 0,0 km/h (0 Bft)
27.03.2012 02:18 18,6 C 7,1 C 0,0 UV-I 0,0 C 49 % 80 % 0 % 1036,0 hPa 0,0 l/m 0,0 km/h (0 Bft) 0 min 0 min 0,0 km/h (0 Bft)
27.03.2012 02:20 18,6 C 6,9 C 0,0 UV-I 0,0 C 49 % 80 % 0 % 1036,0 hPa 0,0 l/m 0,0 km/h (0 Bft) 0 min 0 min 0,0 km/h (0 Bft)
27.03.2012 02:22 18,6 C 6,9 C 0,0 UV-I 0,0 C 49 % 80 % 0 % 1036,0 hPa 0,0 l/m 0,0 km/h (0 Bft) 0 min 0 min 0,0 km/h (0 Bft)
27.03.2012 02:24 18,6 C 6,8 C 0,0 UV-I 0,0 C 49 % 81 % 0 % 1036,0 hPa 0,0 l/m 0,0 km/h (0 Bft) 0 min 0 min 0,0 km/h (0 Bft)
27.03.2012 02:26 18,6 C 6,9 C 0,0 UV-I 0,0 C 49 % 81 % 0 % 1035,8 hPa 0,0 l/m 0,0 km/h (0 Bft) 0 min 0 min 0,0 km/h (0 Bft)
27.03.2012 02:28 18,6 C 6,8 C 0,0 UV-I 0,0 C 49 % 81 % 0 % 1035,8 hPa 0,0 l/m 0,0 km/h (0 Bft) 0 min 0 min 0,0 km/h (0 Bft)
27.03.2012 02:30 18,6 C 6,7 C 0,0 UV-I 0,0 C 49 % 81 % 0 % 1035,8 hPa 0,0 l/m 0,0 km/h (0 Bft) 0 min 0 min 0,0 km/h (0 Bft)
27.03.2012 02:32 18,6 C 6,6 C 0,0 UV-I 0,0 C 49 % 81 % 0 % 1035,8 hPa 0,0 l/m 0,0 km/h (0 Bft) 0 min 0 min 0,0 km/h (0 Bft)
27.03.2012 02:34 18,6 C 6,7 C 0,0 UV-I 0,0 C 49 % 81 % 0 % 1035,8 hPa 0,0 l/m 0,0 km/h (0 Bft) 0 min 0 min 0,0 km/h (0 Bft)
27.03.2012 02:36 18,6 C 6,6 C 0,0 UV-I 0,0 C 49 % 81 % 0 % 1035,8 hPa 0,0 l/m 0,0 km/h (0 Bft) 0 min 0 min 0,0 km/h (0 Bft)
27.03.2012 02:38 18,6 C 6,5 C 0,0 UV-I 0,0 C 49 % 82 % 0 % 1035,8 hPa 0,0 l/m 0,0 km/h (0 Bft) 0 min 0 min 0,0 km/h (0 Bft)
27.03.2012 02:40 18,6 C 6,4 C 0,0 UV-I 0,0 C 49 % 82 % 0 % 1035,8 hPa 0,0 l/m 0,0 km/h (0 Bft) 0 min 0 min 0,0 km/h (0 Bft)
27.03.2012 02:42 18,6 C 6,4 C 0,0 UV-I 0,0 C 49 % 82 % 0 % 1035,8 hPa 0,0 l/m 0,0 km/h (0 Bft) 0 min 0 min 0,0 km/h (0 Bft)
27.03.2012 02:44 18,6 C 6,5 C 0,0 UV-I 0,0 C 49 % 82 % 0 % 1035,8 hPa 0,0 l/m 0,0 km/h (0 Bft) 0 min 0 min 0,0 km/h (0 Bft)
27.03.2012 02:46 18,6 C 6,4 C 0,0 UV-I 0,0 C 49 % 82 % 0 % 1036,2 hPa 0,0 l/m 0,0 km/h (0 Bft) 0 min 0 min 0,0 km/h (0 Bft)
27.03.2012 02:48 18,5 C 6,4 C 0,0 UV-I 0,0 C 49 % 82 % 0 % 1036,2 hPa 0,0 l/m 0,0 km/h (0 Bft) 0 min 0 min 0,0 km/h (0 Bft)
27.03.2012 02:50 18,5 C 6,3 C 0,0 UV-I 0,0 C 49 % 82 % 0 % 1036,2 hPa 0,0 l/m 0,0 km/h (0 Bft) 0 min 0 min 0,0 km/h (0 Bft)
27.03.2012 02:52 18,5 C 6,3 C 0,0 UV-I 0,0 C 49 % 82 % 0 % 1036,2 hPa 0,0 l/m 0,0 km/h (0 Bft) 0 min 0 min 0,0 km/h (0 Bft)
27.03.2012 02:54 18,5 C 6,3 C 0,0 UV-I 0,0 C 49 % 83 % 0 % 1036,2 hPa 0,0 l/m 0,0 km/h (0 Bft) 0 min 0 min 0,0 km/h (0 Bft)
27.03.2012 02:56 18,5 C 6,3 C 0,0 UV-I 0,0 C 49 % 83 % 0 % 1036,2 hPa 0,0 l/m 0,0 km/h (0 Bft) 0 min 0 min 0,0 km/h (0 Bft)
27.03.2012 02:58 18,5 C 6,3 C 0,0 UV-I 0,0 C 49 % 83 % 0 % 1036,2 hPa 0,0 l/m 0,0 km/h (0 Bft) 0 min 0 min 0,0 km/h (0 Bft)
27.03.2012 03:00 18,5 C 6,3 C 0,0 UV-I 0,0 C 49 % 83 % 0 % 1036,2 hPa 0,0 l/m 0,0 km/h (0 Bft) 0 min 0 min 0,0 km/h (0 Bft)
27.03.2012 03:02 18,5 C 6,2 C 0,0 UV-I 0,0 C 49 % 83 % 0 % 1036,2 hPa 0,0 l/m 0,0 km/h (0 Bft) 0 min 0 min 0,0 km/h (0 Bft)
27.03.2012 03:04 18,5 C 6,1 C 0,0 UV-I 0,0 C 49 % 83 % 0 % 1036,2 hPa 0,0 l/m 0,0 km/h (0 Bft) 0 min 0 min 0,0 km/h (0 Bft)
27.03.2012 03:06 18,5 C 6,1 C 0,0 UV-I 0,0 C 49 % 83 % 0 % 1036,1 hPa 0,0 l/m 0,0 km/h (0 Bft) 0 min 0 min 0,0 km/h (0 Bft)
27.03.2012 03:08 18,5 C 6,1 C 0,0 UV-I 0,0 C 49 % 83 % 0 % 1036,1 hPa 0,0 l/m 0,0 km/h (0 Bft) 0 min 0 min 0,0 km/h (0 Bft)
27.03.2012 03:10 18,4 C 6,1 C 0,0 UV-I 0,0 C 49 % 84 % 0 % 1036,1 hPa 0,0 l/m 0,0 km/h (0 Bft) 0 min 0 min 0,0 km/h (0 Bft)
27.03.2012 03:12 18,4 C 6,0 C 0,0 UV-I 0,0 C 49 % 84 % 0 % 1036,1 hPa 0,0 l/m 0,0 km/h (0 Bft) 0 min 0 min 0,0 km/h (0 Bft)
27.03.2012 03:14 18,4 C 6,0 C 0,0 UV-I 0,0 C 49 % 84 % 0 % 1036,1 hPa 0,0 l/m 0,0 km/h (0 Bft) 0 min 0 min 0,0 km/h (0 Bft)
27.03.2012 03:16 18,4 C 5,9 C 0,0 UV-I 0,0 C 49 % 84 % 0 % 1036,1 hPa 0,0 l/m 0,0 km/h (0 Bft) 0 min 0 min 0,0 km/h (0 Bft)
27.03.2012 03:18 18,4 C 5,9 C 0,0 UV-I 0,0 C 49 % 84 % 0 % 1036,1 hPa 0,0 l/m 0,0 km/h (0 Bft) 0 min 0 min 0,0 km/h (0 Bft)
27.03.2012 03:20 18,4 C 5,8 C 0,0 UV-I 0,0 C 49 % 84 % 0 % 1036,1 hPa 0,0 l/m 0,0 km/h (0 Bft) 0 min 0 min 0,0 km/h (0 Bft)
27.03.2012 03:22 18,4 C 5,9 C 0,0 UV-I 0,0 C 49 % 84 % 0 % 1036,1 hPa 0,0 l/m 0,0 km/h (0 Bft) 0 min 0 min 0,0 km/h (0 Bft)
27.03.2012 03:24 18,4 C 5,8 C 0,0 UV-I 0,0 C 49 % 84 % 0 % 1036,1 hPa 0,0 l/m 0,0 km/h (0 Bft) 0 min 0 min 0,0 km/h (0 Bft)
27.03.2012 03:26 18,4 C 5,7 C 0,0 UV-I 0,0 C 48 % 84 % 0 % 1035,8 hPa 0,0 l/m 0,0 km/h (0 Bft) 0 min 0 min 0,0 km/h (0 Bft)
27.03.2012 03:28 18,4 C 5,7 C 0,0 UV-I 0,0 C 49 % 84 % 0 % 1035,8 hPa 0,0 l/m 0,0 km/h (0 Bft) 0 min 0 min 0,0 km/h (0 Bft)
27.03.2012 03:30 18,4 C 5,6 C 0,0 UV-I 0,0 C 49 % 85 % 0 % 1035,8 hPa 0,0 l/m 0,0 km/h (0 Bft) 0 min 0 min 0,0 km/h (0 Bft)
27.03.2012 03:32 18,4 C 5,6 C 0,0 UV-I 0,0 C 49 % 85 % 0 % 1035,8 hPa 0,0 l/m 0,0 km/h (0 Bft) 0 min 0 min 0,0 km/h (0 Bft)
27.03.2012 03:34 18,4 C 5,6 C 0,0 UV-I 0,0 C 49 % 85 % 0 % 1035,8 hPa 0,0 l/m 0,0 km/h (0 Bft) 0 min 0 min 0,0 km/h (0 Bft)
27.03.2012 03:36 18,4 C 5,6 C 0,0 UV-I 0,0 C 49 % 85 % 0 % 1035,8 hPa 0,0 l/m 0,0 km/h (0 Bft) 0 min 0 min 0,0 km/h (0 Bft)
27.03.2012 03:38 18,4 C 5,6 C 0,0 UV-I 0,0 C 49 % 85 % 0 % 1035,8 hPa 0,0 l/m 0,0 km/h (0 Bft) 0 min 0 min 0,0 km/h (0 Bft)
27.03.2012 03:40 18,4 C 5,5 C 0,0 UV-I 0,0 C 49 % 85 % 0 % 1035,8 hPa 0,0 l/m 0,0 km/h (0 Bft) 0 min 0 min 0,0 km/h (0 Bft)
27.03.2012 03:42 18,4 C 5,5 C 0,0 UV-I 0,0 C 49 % 85 % 0 % 1035,8 hPa 0,0 l/m 0,0 km/h (0 Bft) 0 min 0 min 0,0 km/h (0 Bft)
27.03.2012 03:44 18,4 C 5,4 C 0,0 UV-I 0,0 C 49 % 85 % 0 % 1035,8 hPa 0,0 l/m 0,0 km/h (0 Bft) 0 min 0 min 0,0 km/h (0 Bft)
27.03.2012 03:46 18,2 C 5,5 C 0,0 UV-I 0,0 C 49 % 85 % 0 % 1035,7 hPa 0,0 l/m 0,0 km/h (0 Bft) 0 min 0 min 0,0 km/h (0 Bft)
27.03.2012 03:48 18,2 C 5,4 C 0,0 UV-I 0,0 C 49 % 85 % 0 % 1035,7 hPa 0,0 l/m 0,0 km/h (0 Bft) 0 min 0 min 0,0 km/h (0 Bft)
27.03.2012 03:50 18,2 C 5,3 C 0,0 UV-I 0,0 C 49 % 85 % 0 % 1035,7 hPa 0,0 l/m 0,0 km/h (0 Bft) 0 min 0 min 0,0 km/h (0 Bft)
27.03.2012 03:52 18,2 C 5,3 C 0,0 UV-I 0,0 C 49 % 85 % 0 % 1035,7 hPa 0,0 l/m 0,0 km/h (0 Bft) 0 min 0 min 0,0 km/h (0 Bft)
27.03.2012 03:54 18,2 C 5,3 C 0,0 UV-I 0,0 C 49 % 85 % 0 % 1035,7 hPa 0,0 l/m 0,0 km/h (0 Bft) 0 min 0 min 0,0 km/h (0 Bft)
27.03.2012 03:56 18,3 C 5,2 C 0,0 UV-I 0,0 C 49 % 85 % 0 % 1035,7 hPa 0,0 l/m 0,0 km/h (0 Bft) 0 min 0 min 0,0 km/h (0 Bft)
27.03.2012 03:58 18,3 C 5,2 C 0,0 UV-I 0,0 C 48 % 85 % 0 % 1035,7 hPa 0,0 l/m 0,0 km/h (0 Bft) 0 min 0 min 0,0 km/h (0 Bft)
27.03.2012 04:00 18,3 C 5,3 C 0,0 UV-I 0,0 C 49 % 85 % 0 % 1035,7 hPa 0,0 l/m 0,0 km/h (0 Bft) 0 min 0 min 0,0 km/h (0 Bft)
27.03.2012 04:02 18,3 C 5,3 C 0,0 UV-I 0,0 C 49 % 86 % 0 % 1035,7 hPa 0,0 l/m 0,0 km/h (0 Bft) 0 min 0 min 0,0 km/h (0 Bft)
27.03.2012 04:04 18,2 C 5,2 C 0,0 UV-I 0,0 C 49 % 86 % 0 % 1035,7 hPa 0,0 l/m 0,0 km/h (0 Bft) 0 min 0 min 0,0 km/h (0 Bft)
27.03.2012 04:06 18,2 C 5,2 C 0,0 UV-I 0,0 C 49 % 86 % 0 % 1035,7 hPa 0,0 l/m 0,0 km/h (0 Bft) 0 min 0 min 0,0 km/h (0 Bft)
27.03.2012 04:08 18,2 C 5,2 C 0,0 UV-I 0,0 C 49 % 86 % 0 % 1035,7 hPa 0,0 l/m 0,0 km/h (0 Bft) 0 min 0 min 0,0 km/h (0 Bft)
27.03.2012 04:10 18,2 C 5,2 C 0,0 UV-I 0,0 C 49 % 86 % 0 % 1035,7 hPa 0,0 l/m 0,0 km/h (0 Bft) 0 min 0 min 0,0 km/h (0 Bft)
27.03.2012 04:12 18,2 C 5,2 C 0,0 UV-I 0,0 C 49 % 86 % 0 % 1035,7 hPa 0,0 l/m 0,0 km/h (0 Bft) 0 min 0 min 0,0 km/h (0 Bft)
27.03.2012 04:14 18,2 C 5,2 C 0,0 UV-I 0,0 C 49 % 87 % 0 % 1035,7 hPa 0,0 l/m 0,0 km/h (0 Bft) 0 min 0 min 0,0 km/h (0 Bft)
27.03.2012 04:16 18,2 C 5,2 C 0,0 UV-I 0,0 C 49 % 87 % 0 % 1035,7 hPa 0,0 l/m 0,0 km/h (0 Bft) 0 min 0 min 0,0 km/h (0 Bft)
27.03.2012 04:18 18,2 C 5,2 C 0,0 UV-I 0,0 C 49 % 87 % 0 % 1035,7 hPa 0,0 l/m 0,0 km/h (0 Bft) 0 min 0 min 0,0 km/h (0 Bft)
27.03.2012 04:20 18,2 C 5,2 C 0,0 UV-I 0,0 C 48 % 87 % 0 % 1035,7 hPa 0,0 l/m 0,0 km/h (0 Bft) 0 min 0 min 0,0 km/h (0 Bft)
27.03.2012 04:22 18,2 C 5,2 C 0,0 UV-I 0,0 C 48 % 87 % 0 % 1035,7 hPa 0,0 l/m 0,0 km/h (0 Bft) 0 min 0 min 0,0 km/h (0 Bft)
27.03.2012 04:24 18,2 C 5,2 C 0,0 UV-I 0,0 C 49 % 87 % 0 % 1035,7 hPa 0,0 l/m 0,0 km/h (0 Bft) 0 min 0 min 0,0 km/h (0 Bft)
27.03.2012 04:26 18,2 C 5,2 C 0,0 UV-I 0,0 C 49 % 87 % 0 % 1035,6 hPa 0,0 l/m 0,0 km/h (0 Bft) 0 min 0 min 0,0 km/h (0 Bft)
27.03.2012 04:28 18,1 C 5,2 C 0,0 UV-I 0,0 C 49 % 87 % 0 % 1035,6 hPa 0,0 l/m 0,0 km/h (0 Bft) 0 min 0 min 0,0 km/h (0 Bft)
27.03.2012 04:30 18,2 C 5,2 C 0,0 UV-I 0,0 C 49 % 88 % 0 % 1035,6 hPa 0,0 l/m 0,0 km/h (0 Bft) 0 min 0 min 0,0 km/h (0 Bft)
27.03.2012 04:32 18,1 C 5,2 C 0,0 UV-I 0,0 C 49 % 88 % 0 % 1035,6 hPa 0,0 l/m 0,0 km/h (0 Bft) 0 min 0 min 0,0 km/h (0 Bft)
27.03.2012 04:34 18,1 C 5,2 C 0,0 UV-I 0,0 C 49 % 88 % 0 % 1035,6 hPa 0,0 l/m 0,0 km/h (0 Bft) 0 min 0 min 0,0 km/h (0 Bft)
27.03.2012 04:36 18,1 C 5,2 C 0,0 UV-I 0,0 C 49 % 88 % 0 % 1035,6 hPa 0,0 l/m 0,0 km/h (0 Bft) 0 min 2 min 0,0 km/h (0 Bft)
27.03.2012 04:38 18,1 C 5,1 C 0,0 UV-I 0,0 C 49 % 88 % 0 % 1035,6 hPa 0,0 l/m 0,0 km/h (0 Bft) 0 min 0 min 0,0 km/h (0 Bft)
27.03.2012 04:40 18,1 C 5,1 C 0,0 UV-I 0,0 C 48 % 88 % 0 % 1035,6 hPa 0,0 l/m 0,0 km/h (0 Bft) 0 min 0 min 0,0 km/h (0 Bft)
27.03.2012 04:42 18,1 C 5,1 C 0,0 UV-I 0,0 C 49 % 88 % 0 % 1035,6 hPa 0,0 l/m 0,0 km/h (0 Bft) 0 min 0 min 0,0 km/h (0 Bft)
27.03.2012 04:44 18,1 C 5,1 C 0,0 UV-I 0,0 C 49 % 88 % 0 % 1035,6 hPa 0,0 l/m 0,0 km/h (0 Bft) 0 min 0 min 0,0 km/h (0 Bft)
27.03.2012 04:46 18,0 C 5,1 C 0,0 UV-I 0,0 C 49 % 88 % 0 % 1035,6 hPa 0,0 l/m 0,0 km/h (0 Bft) 0 min 0 min 0,0 km/h (0 Bft)
27.03.2012 04:48 18,0 C 5,1 C 0,0 UV-I 0,0 C 49 % 88 % 0 % 1035,6 hPa 0,0 l/m 0,0 km/h (0 Bft) 0 min 0 min 0,0 km/h (0 Bft)
27.03.2012 04:50 18,0 C 5,1 C 0,0 UV-I 0,0 C 49 % 88 % 0 % 1035,6 hPa 0,0 l/m 0,0 km/h (0 Bft) 0 min 0 min 0,0 km/h (0 Bft)
27.03.2012 04:52 18,0 C 5,1 C 0,0 UV-I 0,0 C 49 % 88 % 0 % 1035,6 hPa 0,0 l/m 0,0 km/h (0 Bft) 0 min 0 min 0,0 km/h (0 Bft)
27.03.2012 04:54 18,0 C 5,1 C 0,0 UV-I 0,0 C 49 % 88 % 0 % 1035,6 hPa 0,0 l/m 0,0 km/h (0 Bft) 0 min 0 min 0,0 km/h (0 Bft)
27.03.2012 04:56 18,0 C 5,1 C 0,0 UV-I 0,0 C 49 % 88 % 0 % 1035,6 hPa 0,0 l/m 0,0 km/h (0 Bft) 0 min 0 min 0,0 km/h (0 Bft)
27.03.2012 04:58 18,0 C 5,1 C 0,0 UV-I 0,0 C 48 % 88 % 0 % 1035,6 hPa 0,0 l/m 0,0 km/h (0 Bft) 0 min 0 min 0,0 km/h (0 Bft)
27.03.2012 05:00 18,0 C 5,1 C 0,0 UV-I 0,0 C 49 % 88 % 0 % 1035,6 hPa 0,0 l/m 0,0 km/h (0 Bft) 0 min 0 min 0,0 km/h (0 Bft)
27.03.2012 05:02 18,0 C 5,1 C 0,0 UV-I 0,0 C 49 % 88 % 0 % 1035,6 hPa 0,0 l/m 0,0 km/h (0 Bft) 0 min 0 min 0,0 km/h (0 Bft)
27.03.2012 05:04 18,0 C 5,0 C 0,0 UV-I 0,0 C 49 % 88 % 0 % 1035,6 hPa 0,0 l/m 0,0 km/h (0 Bft) 0 min 0 min 0,0 km/h (0 Bft)
27.03.2012 05:06 18,0 C 5,1 C 0,0 UV-I 0,0 C 49 % 88 % 0 % 1035,7 hPa 0,0 l/m 0,0 km/h (0 Bft) 0 min 0 min 0,0 km/h (0 Bft)
27.03.2012 05:08 18,0 C 5,0 C 0,0 UV-I 0,0 C 49 % 88 % 0 % 1035,7 hPa 0,0 l/m 0,0 km/h (0 Bft) 0 min 0 min 0,0 km/h (0 Bft)
27.03.2012 05:10 18,0 C 5,0 C 0,0 UV-I 0,0 C 49 % 88 % 0 % 1035,7 hPa 0,0 l/m 0,0 km/h (0 Bft) 0 min 0 min 0,0 km/h (0 Bft)
27.03.2012 05:12 18,0 C 4,9 C 0,0 UV-I 0,0 C 49 % 88 % 0 % 1035,7 hPa 0,0 l/m 0,0 km/h (0 Bft) 0 min 0 min 0,0 km/h (0 Bft)
27.03.2012 05:14 18,0 C 4,9 C 0,0 UV-I 0,0 C 49 % 88 % 0 % 1035,7 hPa 0,0 l/m 0,0 km/h (0 Bft) 0 min 0 min 0,0 km/h (0 Bft)
27.03.2012 05:16 18,0 C 4,9 C 0,0 UV-I 0,0 C 49 % 88 % 0 % 1035,7 hPa 0,0 l/m 0,0 km/h (0 Bft) 0 min 0 min 0,0 km/h (0 Bft)
27.03.2012 05:18 18,0 C 4,9 C 0,0 UV-I 0,0 C 49 % 88 % 0 % 1035,7 hPa 0,0 l/m 0,0 km/h (0 Bft) 0 min 0 min 0,0 km/h (0 Bft)
27.03.2012 05:20 18,0 C 4,8 C 0,0 UV-I 0,0 C 49 % 88 % 0 % 1035,7 hPa 0,0 l/m 0,0 km/h (0 Bft) 0 min 0 min 0,0 km/h (0 Bft)
27.03.2012 05:22 17,9 C 4,8 C 0,0 UV-I 0,0 C 48 % 89 % 0 % 1035,7 hPa 0,0 l/m 0,0 km/h (0 Bft) 0 min 0 min 0,0 km/h (0 Bft)
27.03.2012 05:24 17,9 C 4,8 C 0,0 UV-I 0,0 C 49 % 89 % 0 % 1035,7 hPa 0,0 l/m 0,0 km/h (0 Bft) 0 min 0 min 0,0 km/h (0 Bft)
27.03.2012 05:26 17,9 C 4,8 C 0,0 UV-I 0,0 C 48 % 89 % 0 % 1035,9 hPa 0,0 l/m 0,0 km/h (0 Bft) 0 min 0 min 0,0 km/h (0 Bft)
27.03.2012 05:28 17,9 C 4,8 C 0,0 UV-I 0,0 C 49 % 89 % 0 % 1035,9 hPa 0,0 l/m 0,0 km/h (0 Bft) 0 min 0 min 0,0 km/h (0 Bft)
27.03.2012 05:30 17,9 C 4,9 C 0,0 UV-I 0,0 C 49 % 89 % 0 % 1035,9 hPa 0,0 l/m 0,0 km/h (0 Bft) 0 min 0 min 0,0 km/h (0 Bft)
27.03.2012 05:32 17,9 C 4,8 C 0,0 UV-I 0,0 C 49 % 89 % 0 % 1035,9 hPa 0,0 l/m 0,0 km/h (0 Bft) 0 min 0 min 0,0 km/h (0 Bft)
27.03.2012 05:34 17,9 C 4,8 C 0,0 UV-I 0,0 C 49 % 89 % 0 % 1035,9 hPa 0,0 l/m 0,0 km/h (0 Bft) 0 min 0 min 0,0 km/h (0 Bft)
27.03.2012 05:36 17,9 C 4,7 C 0,0 UV-I 0,0 C 49 % 89 % 0 % 1035,9 hPa 0,0 l/m 0,0 km/h (0 Bft) 0 min 0 min 0,0 km/h (0 Bft)
27.03.2012 05:38 17,8 C 4,7 C 0,0 UV-I 0,0 C 49 % 89 % 0 % 1035,9 hPa 0,0 l/m 0,0 km/h (0 Bft) 0 min 0 min 0,0 km/h (0 Bft)
27.03.2012 05:40 17,8 C 4,7 C 0,0 UV-I 0,0 C 49 % 89 % 0 % 1035,9 hPa 0,0 l/m 0,0 km/h (0 Bft) 0 min 0 min 0,0 km/h (0 Bft)
27.03.2012 05:42 17,8 C 4,6 C 0,0 UV-I 0,0 C 49 % 89 % 0 % 1035,9 hPa 0,0 l/m 0,0 km/h (0 Bft) 0 min 0 min 0,0 km/h (0 Bft)
27.03.2012 05:44 17,9 C 4,6 C 0,0 UV-I 0,0 C 49 % 89 % 0 % 1035,9 hPa 0,0 l/m 0,0 km/h (0 Bft) 0 min 0 min 0,0 km/h (0 Bft)
27.03.2012 05:46 17,8 C 4,6 C 0,0 UV-I 0,0 C 49 % 89 % 0 % 1036,0 hPa 0,0 l/m 0,0 km/h (0 Bft) 0 min 0 min 0,0 km/h (0 Bft)
27.03.2012 05:48 17,8 C 4,7 C 0,0 UV-I 0,0 C 49 % 89 % 0 % 1036,0 hPa 0,0 l/m 0,0 km/h (0 Bft) 0 min 0 min 0,0 km/h (0 Bft)
27.03.2012 05:50 17,8 C 4,7 C 0,0 UV-I 0,0 C 49 % 89 % 0 % 1036,0 hPa 0,0 l/m 0,0 km/h (0 Bft) 0 min 0 min 0,0 km/h (0 Bft)
27.03.2012 05:52 17,8 C 4,7 C 0,0 UV-I 0,0 C 49 % 89 % 0 % 1036,0 hPa 0,0 l/m 0,0 km/h (0 Bft) 0 min 0 min 0,0 km/h (0 Bft)
27.03.2012 05:54 17,8 C 4,7 C 0,0 UV-I 0,0 C 49 % 89 % 0 % 1036,0 hPa 0,0 l/m 0,0 km/h (0 Bft) 0 min 0 min 0,0 km/h (0 Bft)
27.03.2012 05:56 17,8 C 4,6 C 0,0 UV-I 0,0 C 49 % 89 % 0 % 1036,0 hPa 0,0 l/m 0,0 km/h (0 Bft) 0 min 0 min 0,0 km/h (0 Bft)
27.03.2012 05:58 17,8 C 4,5 C 0,0 UV-I 0,0 C 49 % 89 % 0 % 1036,0 hPa 0,0 l/m 0,0 km/h (0 Bft) 0 min 0 min 0,0 km/h (0 Bft)
27.03.2012 06:00 17,8 C 4,5 C 0,0 UV-I 0,0 C 49 % 89 % 0 % 1036,0 hPa 0,0 l/m 0,0 km/h (0 Bft) 0 min 0 min 0,0 km/h (0 Bft)
27.03.2012 06:02 17,8 C 4,5 C 0,0 UV-I 0,0 C 49 % 89 % 0 % 1036,0 hPa 0,0 l/m 0,0 km/h (0 Bft) 0 min 0 min 0,0 km/h (0 Bft)
27.03.2012 06:04 17,8 C 4,5 C 0,0 UV-I 0,0 C 49 % 89 % 0 % 1036,0 hPa 0,0 l/m 0,0 km/h (0 Bft) 0 min 0 min 0,0 km/h (0 Bft)
27.03.2012 06:06 17,8 C 4,4 C 0,0 UV-I 0,0 C 49 % 89 % 0 % 1035,6 hPa 0,0 l/m 0,0 km/h (0 Bft) 0 min 0 min 0,0 km/h (0 Bft)
27.03.2012 06:08 17,7 C 4,4 C 0,0 UV-I 0,0 C 49 % 89 % 0 % 1035,6 hPa 0,0 l/m 0,0 km/h (0 Bft) 0 min 0 min 0,0 km/h (0 Bft)
27.03.2012 06:10 17,8 C 4,4 C 0,0 UV-I 0,0 C 49 % 89 % 0 % 1035,6 hPa 0,0 l/m 0,0 km/h (0 Bft) 0 min 0 min 0,0 km/h (0 Bft)
27.03.2012 06:12 17,8 C 4,5 C 0,0 UV-I 0,0 C 49 % 89 % 0 % 1035,6 hPa 0,0 l/m 0,0 km/h (0 Bft) 0 min 0 min 0,0 km/h (0 Bft)
27.03.2012 06:14 17,7 C 4,4 C 0,0 UV-I 0,0 C 49 % 89 % 0 % 1035,6 hPa 0,0 l/m 0,0 km/h (0 Bft) 0 min 0 min 0,0 km/h (0 Bft)
27.03.2012 06:16 17,7 C 4,4 C 0,0 UV-I 0,0 C 49 % 89 % 0 % 1035,6 hPa 0,0 l/m 0,0 km/h (0 Bft) 0 min 0 min 0,0 km/h (0 Bft)
27.03.2012 06:18 17,7 C 4,4 C 0,0 UV-I 0,0 C 49 % 89 % 0 % 1035,6 hPa 0,0 l/m 0,0 km/h (0 Bft) 0 min 0 min 0,0 km/h (0 Bft)
27.03.2012 06:20 17,7 C 4,4 C 0,0 UV-I 0,0 C 49 % 90 % 0 % 1035,6 hPa 0,0 l/m 0,0 km/h (0 Bft) 0 min 2 min 0,0 km/h (0 Bft)
27.03.2012 06:22 17,7 C 4,4 C 0,0 UV-I 0,0 C 49 % 90 % 0 % 1035,6 hPa 0,0 l/m 0,0 km/h (0 Bft) 0 min 0 min 0,0 km/h (0 Bft)
27.03.2012 06:24 17,7 C 4,3 C 0,0 UV-I 0,0 C 49 % 90 % 0 % 1035,6 hPa 0,0 l/m 0,0 km/h (0 Bft) 0 min 0 min 0,0 km/h (0 Bft)
27.03.2012 06:26 17,6 C 4,3 C 0,0 UV-I 0,0 C 49 % 90 % 0 % 1035,5 hPa 0,0 l/m 0,0 km/h (0 Bft) 0 min 0 min 0,0 km/h (0 Bft)
27.03.2012 06:28 17,6 C 4,3 C 0,0 UV-I 0,0 C 49 % 90 % 0 % 1035,5 hPa 0,0 l/m 0,0 km/h (0 Bft) 0 min 0 min 0,0 km/h (0 Bft)
27.03.2012 06:30 17,6 C 4,3 C 0,0 UV-I 0,0 C 49 % 90 % 0 % 1035,5 hPa 0,0 l/m 0,0 km/h (0 Bft) 0 min 0 min 0,0 km/h (0 Bft)
27.03.2012 06:32 17,6 C 4,3 C 0,0 UV-I 0,0 C 49 % 90 % 0 % 1035,5 hPa 0,0 l/m 0,0 km/h (0 Bft) 0 min 0 min 0,0 km/h (0 Bft)
27.03.2012 06:34 17,6 C 4,3 C 0,0 UV-I 0,0 C 49 % 90 % 0 % 1035,5 hPa 0,0 l/m 0,0 km/h (0 Bft) 0 min 0 min 0,0 km/h (0 Bft)
27.03.2012 06:36 17,6 C 4,3 C 0,0 UV-I 0,0 C 49 % 90 % 0 % 1035,5 hPa 0,0 l/m 0,0 km/h (0 Bft) 0 min 0 min 0,0 km/h (0 Bft)
27.03.2012 06:38 17,6 C 4,3 C 0,0 UV-I 0,0 C 49 % 90 % 0 % 1035,5 hPa 0,0 l/m 0,0 km/h (0 Bft) 0 min 0 min 0,0 km/h (0 Bft)
27.03.2012 06:40 17,6 C 4,3 C 0,0 UV-I 0,0 C 49 % 90 % 0 % 1035,5 hPa 0,0 l/m 0,0 km/h (0 Bft) 0 min 0 min 0,0 km/h (0 Bft)
27.03.2012 06:42 17,6 C 4,3 C 0,0 UV-I 0,0 C 49 % 90 % 0 % 1035,5 hPa 0,0 l/m 0,0 km/h (0 Bft) 0 min 0 min 0,0 km/h (0 Bft)
27.03.2012 06:44 17,6 C 4,3 C 0,0 UV-I 0,0 C 49 % 90 % 0 % 1035,5 hPa 0,0 l/m 0,0 km/h (0 Bft) 0 min 0 min 0,0 km/h (0 Bft)
27.03.2012 06:46 17,6 C 4,3 C 0,0 UV-I 0,0 C 49 % 90 % 0 % 1036,1 hPa 0,0 l/m 0,0 km/h (0 Bft) 0 min 0 min 0,0 km/h (0 Bft)
27.03.2012 06:48 17,6 C 4,3 C 0,0 UV-I 0,0 C 49 % 90 % 0 % 1036,1 hPa 0,0 l/m 0,0 km/h (0 Bft) 0 min 0 min 0,0 km/h (0 Bft)
27.03.2012 06:50 17,6 C 4,2 C 0,0 UV-I 0,0 C 49 % 90 % 0 % 1036,1 hPa 0,0 l/m 0,0 km/h (0 Bft) 0 min 0 min 0,0 km/h (0 Bft)
27.03.2012 06:52 17,6 C 4,1 C 0,0 UV-I 0,0 C 49 % 90 % 0 % 1036,1 hPa 0,0 l/m 0,0 km/h (0 Bft) 0 min 0 min 0,0 km/h (0 Bft)
27.03.2012 06:54 17,5 C 4,1 C 0,0 UV-I 0,0 C 49 % 90 % 0 % 1036,1 hPa 0,0 l/m 0,0 km/h (0 Bft) 0 min 0 min 0,0 km/h (0 Bft)
27.03.2012 06:56 17,5 C 4,1 C 0,0 UV-I 0,0 C 49 % 89 % 0 % 1036,1 hPa 0,0 l/m 0,0 km/h (0 Bft) 0 min 0 min 0,0 km/h (0 Bft)
27.03.2012 06:58 17,5 C 4,1 C 0,0 UV-I 0,0 C 49 % 90 % 0 % 1036,1 hPa 0,0 l/m 0,0 km/h (0 Bft) 0 min 0 min 0,0 km/h (0 Bft)
27.03.2012 07:00 17,5 C 4,0 C 0,0 UV-I 0,0 C 49 % 90 % 0 % 1036,1 hPa 0,0 l/m 0,0 km/h (0 Bft) 0 min 0 min 0,0 km/h (0 Bft)
27.03.2012 07:02 17,5 C 4,0 C 0,0 UV-I 0,0 C 49 % 90 % 0 % 1036,1 hPa 0,0 l/m 0,0 km/h (0 Bft) 0 min 0 min 0,0 km/h (0 Bft)
27.03.2012 07:04 17,5 C 4,0 C 0,0 UV-I 0,0 C 49 % 90 % 0 % 1036,1 hPa 0,0 l/m 0,0 km/h (0 Bft) 0 min 0 min 0,0 km/h (0 Bft)
27.03.2012 07:06 17,5 C 4,0 C 0,0 UV-I 0,0 C 49 % 90 % 0 % 1035,9 hPa 0,0 l/m 0,0 km/h (0 Bft) 0 min 0 min 0,0 km/h (0 Bft)
27.03.2012 07:08 17,5 C 4,0 C 0,0 UV-I 0,0 C 49 % 90 % 0 % 1035,9 hPa 0,0 l/m 0,0 km/h (0 Bft) 0 min 0 min 0,0 km/h (0 Bft)
27.03.2012 07:10 17,5 C 4,0 C 0,0 UV-I 0,0 C 49 % 90 % 0 % 1035,9 hPa 0,0 l/m 0,0 km/h (0 Bft) 0 min 0 min 0,0 km/h (0 Bft)
27.03.2012 07:12 17,5 C 4,0 C 0,0 UV-I 0,0 C 49 % 90 % 0 % 1035,9 hPa 0,0 l/m 0,0 km/h (0 Bft) 0 min 0 min 0,0 km/h (0 Bft)
27.03.2012 07:14 17,4 C 4,0 C 0,0 UV-I 0,0 C 49 % 90 % 0 % 1035,9 hPa 0,0 l/m 0,0 km/h (0 Bft) 0 min 0 min 0,0 km/h (0 Bft)
27.03.2012 07:16 17,4 C 4,0 C 0,0 UV-I 0,0 C 49 % 90 % 0 % 1035,9 hPa 0,0 l/m 0,0 km/h (0 Bft) 0 min 0 min 0,0 km/h (0 Bft)
27.03.2012 07:18 17,4 C 4,0 C 0,0 UV-I 0,0 C 49 % 90 % 0 % 1035,9 hPa 0,0 l/m 0,0 km/h (0 Bft) 0 min 0 min 0,0 km/h (0 Bft)
27.03.2012 07:20 17,4 C 4,0 C 0,0 UV-I 0,0 C 49 % 90 % 0 % 1035,9 hPa 0,0 l/m 0,0 km/h (0 Bft) 0 min 0 min 0,0 km/h (0 Bft)
27.03.2012 07:22 17,4 C 3,9 C 0,0 UV-I 0,0 C 49 % 90 % 0 % 1035,9 hPa 0,0 l/m 0,0 km/h (0 Bft) 0 min 0 min 0,0 km/h (0 Bft)
27.03.2012 07:24 17,4 C 3,9 C 0,0 UV-I 0,0 C 49 % 90 % 0 % 1035,9 hPa 0,0 l/m 0,0 km/h (0 Bft) 0 min 0 min 0,0 km/h (0 Bft)
27.03.2012 07:26 17,4 C 3,9 C 0,0 UV-I 0,0 C 49 % 90 % 0 % 1036,1 hPa 0,0 l/m 0,0 km/h (0 Bft) 0 min 0 min 0,0 km/h (0 Bft)
27.03.2012 07:28 17,4 C 3,9 C 0,0 UV-I 0,0 C 49 % 90 % 0 % 1036,1 hPa 0,0 l/m 0,0 km/h (0 Bft) 0 min 0 min 0,0 km/h (0 Bft)
27.03.2012 07:30 17,4 C 3,9 C 0,0 UV-I 0,0 C 49 % 90 % 0 % 1036,1 hPa 0,0 l/m 0,0 km/h (0 Bft) 0 min 0 min 0,0 km/h (0 Bft)
27.03.2012 07:32 17,4 C 3,9 C 0,0 UV-I 0,0 C 49 % 90 % 0 % 1036,1 hPa 0,0 l/m 0,0 km/h (0 Bft) 0 min 0 min 0,0 km/h (0 Bft)
27.03.2012 07:34 17,4 C 3,9 C 0,0 UV-I 0,0 C 49 % 90 % 0 % 1036,1 hPa 0,0 l/m 0,0 km/h (0 Bft) 0 min 0 min 0,0 km/h (0 Bft)
27.03.2012 07:36 17,4 C 3,8 C 0,0 UV-I 0,0 C 49 % 90 % 0 % 1036,1 hPa 0,0 l/m 0,0 km/h (0 Bft) 0 min 0 min 0,0 km/h (0 Bft)
27.03.2012 07:38 17,4 C 3,8 C 0,0 UV-I 0,0 C 49 % 90 % 0 % 1036,1 hPa 0,0 l/m 0,0 km/h (0 Bft) 0 min 0 min 0,0 km/h (0 Bft)
27.03.2012 07:40 17,4 C 3,8 C 0,0 UV-I 0,0 C 49 % 90 % 0 % 1036,1 hPa 0,0 l/m 0,0 km/h (0 Bft) 0 min 0 min 0,0 km/h (0 Bft)
27.03.2012 07:42 17,4 C 3,9 C 0,0 UV-I 0,0 C 49 % 91 % 0 % 1036,1 hPa 0,0 l/m 0,0 km/h (0 Bft) 0 min 0 min 0,0 km/h (0 Bft)
27.03.2012 07:44 17,4 C 3,9 C 0,0 UV-I 0,0 C 49 % 91 % 0 % 1036,1 hPa 0,0 l/m 0,0 km/h (0 Bft) 0 min 0 min 0,0 km/h (0 Bft)
27.03.2012 07:46 17,4 C 3,9 C 0,0 UV-I 0,0 C 49 % 90 % 0 % 1036,0 hPa 0,0 l/m 0,0 km/h (0 Bft) 0 min 0 min 0,0 km/h (0 Bft)
27.03.2012 07:48 17,4 C 3,9 C 0,0 UV-I 0,0 C 49 % 90 % 0 % 1036,0 hPa 0,0 l/m 0,0 km/h (0 Bft) 0 min 0 min 0,0 km/h (0 Bft)
27.03.2012 07:50 17,2 C 3,9 C 0,0 UV-I 0,0 C 49 % 90 % 0 % 1036,0 hPa 0,0 l/m 0,0 km/h (0 Bft) 0 min 0 min 0,0 km/h (0 Bft)
27.03.2012 07:52 17,4 C 3,9 C 0,0 UV-I 0,0 C 49 % 90 % 0 % 1036,0 hPa 0,0 l/m 0,0 km/h (0 Bft) 0 min 0 min 0,0 km/h (0 Bft)
27.03.2012 07:54 17,2 C 3,9 C 0,0 UV-I 0,0 C 49 % 90 % 0 % 1036,0 hPa 0,0 l/m 0,0 km/h (0 Bft) 0 min 0 min 0,0 km/h (0 Bft)
27.03.2012 07:56 17,2 C 3,9 C 0,0 UV-I 0,0 C 49 % 90 % 0 % 1036,0 hPa 0,0 l/m 0,0 km/h (0 Bft) 0 min 0 min 0,0 km/h (0 Bft)
27.03.2012 07:58 17,4 C 3,8 C 0,0 UV-I 0,0 C 49 % 90 % 0 % 1036,0 hPa 0,0 l/m 0,0 km/h (0 Bft) 0 min 0 min 0,0 km/h (0 Bft)
27.03.2012 08:00 17,2 C 3,9 C 0,0 UV-I 0,0 C 49 % 91 % 0 % 1036,0 hPa 0,0 l/m 0,0 km/h (0 Bft) 0 min 0 min 0,0 km/h (0 Bft)
27.03.2012 08:02 17,2 C 4,0 C 0,0 UV-I 0,0 C 49 % 91 % 0 % 1036,0 hPa 0,0 l/m 0,0 km/h (0 Bft) 0 min 0 min 0,0 km/h (0 Bft)
27.03.2012 08:04 17,4 C 4,0 C 0,0 UV-I 0,0 C 49 % 91 % 0 % 1036,0 hPa 0,0 l/m 0,0 km/h (0 Bft) 0 min 0 min 0,0 km/h (0 Bft)
27.03.2012 08:06 17,2 C 4,1 C 0,0 UV-I 0,0 C 49 % 91 % 0 % 1036,3 hPa 0,0 l/m 0,0 km/h (0 Bft) 0 min 0 min 0,0 km/h (0 Bft)
27.03.2012 08:08 17,2 C 4,1 C 0,0 UV-I 0,0 C 49 % 91 % 0 % 1036,3 hPa 0,0 l/m 0,0 km/h (0 Bft) 0 min 0 min 0,0 km/h (0 Bft)
27.03.2012 08:10 17,2 C 4,1 C 0,0 UV-I 0,0 C 49 % 91 % 0 % 1036,3 hPa 0,0 l/m 0,0 km/h (0 Bft) 0 min 0 min 0,0 km/h (0 Bft)
27.03.2012 08:12 17,2 C 4,2 C 0,0 UV-I 0,0 C 49 % 91 % 0 % 1036,3 hPa 0,0 l/m 0,0 km/h (0 Bft) 0 min 0 min 0,0 km/h (0 Bft)
27.03.2012 08:14 17,2 C 4,2 C 0,0 UV-I 0,0 C 49 % 91 % 0 % 1036,3 hPa 0,0 l/m 0,0 km/h (0 Bft) 0 min 0 min 0,0 km/h (0 Bft)
27.03.2012 08:16 17,2 C 4,3 C 0,0 UV-I 0,0 C 49 % 90 % 0 % 1036,3 hPa 0,0 l/m 0,0 km/h (0 Bft) 0 min 0 min 0,0 km/h (0 Bft)
27.03.2012 08:18 17,2 C 4,3 C 0,0 UV-I 0,0 C 49 % 90 % 0 % 1036,3 hPa 0,0 l/m 0,0 km/h (0 Bft) 0 min 0 min 0,0 km/h (0 Bft)
27.03.2012 08:20 17,2 C 4,3 C 0,0 UV-I 0,0 C 49 % 90 % 0 % 1036,3 hPa 0,0 l/m 0,0 km/h (0 Bft) 0 min 0 min 0,0 km/h (0 Bft)
27.03.2012 08:22 17,2 C 4,3 C 0,0 UV-I 0,0 C 49 % 90 % 0 % 1036,3 hPa 0,0 l/m 0,0 km/h (0 Bft) 0 min 0 min 0,0 km/h (0 Bft)
27.03.2012 08:24 17,2 C 4,3 C 0,0 UV-I 0,0 C 49 % 90 % 0 % 1036,3 hPa 0,0 l/m 0,0 km/h (0 Bft) 0 min 0 min 0,0 km/h (0 Bft)
27.03.2012 08:26 17,2 C 4,2 C 0,0 UV-I 0,0 C 49 % 90 % 0 % 1036,3 hPa 0,0 l/m 0,0 km/h (0 Bft) 0 min 0 min 0,0 km/h (0 Bft)
27.03.2012 08:28 17,2 C 4,3 C 0,0 UV-I 0,0 C 49 % 90 % 0 % 1036,3 hPa 0,0 l/m 0,0 km/h (0 Bft) 0 min 0 min 0,0 km/h (0 Bft)
27.03.2012 08:30 17,2 C 4,3 C 0,0 UV-I 0,0 C 49 % 90 % 0 % 1036,3 hPa 0,0 l/m 0,0 km/h (0 Bft) 0 min 0 min 0,0 km/h (0 Bft)
27.03.2012 08:32 17,2 C 4,5 C 0,0 UV-I 0,0 C 49 % 90 % 0 % 1036,3 hPa 0,0 l/m 0,0 km/h (0 Bft) 0 min 0 min 0,0 km/h (0 Bft)
27.03.2012 08:34 17,2 C 4,5 C 0,0 UV-I 0,0 C 49 % 90 % 0 % 1036,3 hPa 0,0 l/m 0,0 km/h (0 Bft) 0 min 0 min 0,0 km/h (0 Bft)
27.03.2012 08:36 17,2 C 4,6 C 0,0 UV-I 0,0 C 49 % 90 % 0 % 1036,3 hPa 0,0 l/m 0,0 km/h (0 Bft) 0 min 0 min 0,0 km/h (0 Bft)
27.03.2012 08:38 17,2 C 4,5 C 0,0 UV-I 0,0 C 49 % 90 % 0 % 1036,3 hPa 0,0 l/m 0,0 km/h (0 Bft) 0 min 0 min 0,0 km/h (0 Bft)
27.03.2012 08:40 17,2 C 4,7 C 0,0 UV-I 0,0 C 49 % 90 % 0 % 1036,3 hPa 0,0 l/m 0,0 km/h (0 Bft) 0 min 0 min 0,0 km/h (0 Bft)
27.03.2012 08:42 17,2 C 4,6 C 0,0 UV-I 0,0 C 49 % 90 % 0 % 1036,3 hPa 0,0 l/m 0,0 km/h (0 Bft) 0 min 0 min 0,0 km/h (0 Bft)
27.03.2012 08:44 17,2 C 4,8 C 0,0 UV-I 0,0 C 49 % 90 % 0 % 1036,3 hPa 0,0 l/m 0,0 km/h (0 Bft) 0 min 0 min 0,0 km/h (0 Bft)
27.03.2012 08:46 17,2 C 4,8 C 0,0 UV-I 0,0 C 49 % 90 % 0 % 1036,7 hPa 0,0 l/m 0,0 km/h (0 Bft) 0 min 0 min 0,0 km/h (0 Bft)
27.03.2012 08:48 17,2 C 4,9 C 0,0 UV-I 0,1 C 49 % 90 % 3 % 1036,7 hPa 0,0 l/m 0,0 km/h (0 Bft) 0 min 0 min 0,0 km/h (0 Bft)
27.03.2012 08:50 17,2 C 4,9 C 0,0 UV-I 0,5 C 48 % 90 % 14 % 1036,7 hPa 0,0 l/m 0,0 km/h (0 Bft) 0 min 0 min 0,0 km/h (0 Bft)
27.03.2012 08:52 17,2 C 5,1 C 0,0 UV-I 1,0 C 48 % 90 % 29 % 1036,7 hPa 0,0 l/m 0,0 km/h (0 Bft) 0 min 0 min 0,0 km/h (0 Bft)
27.03.2012 08:54 17,2 C 5,1 C 0,0 UV-I 1,8 C 48 % 90 % 51 % 1036,7 hPa 0,0 l/m 0,0 km/h (0 Bft) 0 min 0 min 0,0 km/h (0 Bft)
27.03.2012 08:56 17,2 C 5,3 C 0,0 UV-I 2,2 C 48 % 90 % 63 % 1036,7 hPa 0,0 l/m 0,4 km/h (0 Bft) 2 min 0 min 4,4 km/h (1 Bft)
27.03.2012 08:58 17,2 C 5,3 C 0,0 UV-I 3,0 C 48 % 89 % 86 % 1036,7 hPa 0,0 l/m 0,8 km/h (0 Bft) 2 min 0 min 5,2 km/h (1 Bft)
27.03.2012 09:00 17,2 C 5,5 C 0,0 UV-I 3,2 C 49 % 89 % 91 % 1036,7 hPa 0,0 l/m 1,2 km/h (1 Bft) 2 min 0 min 4,8 km/h (1 Bft)
27.03.2012 09:02 17,2 C 5,5 C 0,0 UV-I 3,8 C 48 % 89 % 100 % 1036,7 hPa 0,0 l/m 1,2 km/h (1 Bft) 2 min 0 min 0,0 km/h (0 Bft)
27.03.2012 09:04 17,2 C 5,5 C 0,0 UV-I 4,4 C 48 % 89 % 100 % 1036,7 hPa 0,0 l/m 1,2 km/h (1 Bft) 2 min 0 min 0,0 km/h (0 Bft)
27.03.2012 09:06 17,2 C 5,6 C 0,0 UV-I 4,8 C 48 % 88 % 100 % 1036,3 hPa 0,0 l/m 1,2 km/h (1 Bft) 2 min 0 min 0,0 km/h (0 Bft)
27.03.2012 09:08 17,2 C 5,6 C 0,0 UV-I 5,3 C 48 % 87 % 100 % 1036,3 hPa 0,0 l/m 0,8 km/h (0 Bft) 2 min 0 min 4,4 km/h (1 Bft)
27.03.2012 09:10 17,2 C 5,7 C 0,0 UV-I 5,6 C 48 % 88 % 100 % 1036,3 hPa 0,0 l/m 0,8 km/h (0 Bft) 2 min 0 min 0,0 km/h (0 Bft)
27.03.2012 09:12 17,2 C 5,9 C 0,0 UV-I 5,6 C 48 % 88 % 100 % 1036,3 hPa 0,0 l/m 0,4 km/h (0 Bft) 2 min 0 min 0,0 km/h (0 Bft)
27.03.2012 09:14 17,2 C 6,0 C 0,0 UV-I 6,0 C 48 % 87 % 100 % 1036,3 hPa 0,0 l/m 0,4 km/h (0 Bft) 2 min 0 min 0,0 km/h (0 Bft)
27.03.2012 09:16 17,2 C 6,0 C 0,0 UV-I 6,4 C 48 % 87 % 100 % 1036,3 hPa 0,0 l/m 0,4 km/h (0 Bft) 2 min 0 min 0,0 km/h (0 Bft)
27.03.2012 09:18 17,2 C 6,1 C 0,0 UV-I 6,6 C 48 % 86 % 100 % 1036,3 hPa 0,0 l/m 0,4 km/h (0 Bft) 2 min 0 min 0,0 km/h (0 Bft)
27.03.2012 09:20 17,4 C 6,3 C 0,0 UV-I 6,8 C 48 % 86 % 100 % 1036,3 hPa 0,0 l/m 0,8 km/h (0 Bft) 2 min 0 min 0,0 km/h (0 Bft)
27.03.2012 09:22 17,2 C 6,3 C 0,0 UV-I 6,9 C 48 % 85 % 100 % 1036,3 hPa 0,0 l/m 0,8 km/h (0 Bft) 2 min 0 min 0,0 km/h (0 Bft)
27.03.2012 09:24 17,4 C 6,4 C 0,0 UV-I 6,9 C 48 % 84 % 100 % 1036,3 hPa 0,0 l/m 0,8 km/h (0 Bft) 2 min 0 min 0,0 km/h (0 Bft)
27.03.2012 09:26 17,4 C 6,5 C 0,0 UV-I 7,0 C 48 % 84 % 100 % 1036,8 hPa 0,0 l/m 1,6 km/h (1 Bft) 2 min 0 min 5,2 km/h (1 Bft)
27.03.2012 09:28 17,4 C 6,5 C 0,0 UV-I 7,1 C 48 % 84 % 100 % 1036,8 hPa 0,0 l/m 1,6 km/h (1 Bft) 2 min 0 min 0,0 km/h (0 Bft)
27.03.2012 09:30 17,4 C 6,7 C 0,1 UV-I 7,1 C 48 % 84 % 100 % 1036,8 hPa 0,0 l/m 1,6 km/h (1 Bft) 2 min 0 min 0,0 km/h (0 Bft)
27.03.2012 09:32 17,4 C 6,7 C 0,1 UV-I 7,4 C 48 % 83 % 100 % 1036,8 hPa 0,0 l/m 1,6 km/h (1 Bft) 2 min 0 min 0,0 km/h (0 Bft)
27.03.2012 09:34 17,4 C 6,8 C 0,2 UV-I 7,5 C 48 % 83 % 100 % 1036,8 hPa 0,0 l/m 1,2 km/h (1 Bft) 2 min 0 min 0,0 km/h (0 Bft)
27.03.2012 09:36 17,4 C 6,8 C 0,2 UV-I 7,7 C 48 % 82 % 100 % 1036,8 hPa 0,0 l/m 0,8 km/h (0 Bft) 2 min 0 min 0,0 km/h (0 Bft)
27.03.2012 09:38 17,4 C 7,1 C 0,2 UV-I 7,8 C 48 % 83 % 100 % 1036,8 hPa 0,0 l/m 0,8 km/h (0 Bft) 2 min 0 min 0,0 km/h (0 Bft)
27.03.2012 09:40 17,4 C 7,0 C 0,2 UV-I 8,0 C 48 % 81 % 100 % 1036,8 hPa 0,0 l/m 1,2 km/h (1 Bft) 2 min 0 min 5,6 km/h (1 Bft)
27.03.2012 09:42 17,4 C 7,2 C 0,2 UV-I 7,9 C 48 % 82 % 100 % 1036,8 hPa 0,0 l/m 1,2 km/h (1 Bft) 2 min 0 min 6,8 km/h (2 Bft)
27.03.2012 09:44 17,4 C 7,2 C 0,2 UV-I 7,9 C 48 % 81 % 100 % 1036,8 hPa 0,0 l/m 2,0 km/h (1 Bft) 2 min 0 min 0,0 km/h (0 Bft)
27.03.2012 09:46 17,4 C 7,2 C 0,2 UV-I 8,0 C 48 % 81 % 100 % 1036,5 hPa 0,0 l/m 2,0 km/h (1 Bft) 2 min 0 min 5,2 km/h (1 Bft)
27.03.2012 09:48 17,4 C 7,5 C 0,2 UV-I 7,7 C 48 % 81 % 100 % 1036,5 hPa 0,0 l/m 2,0 km/h (1 Bft) 2 min 0 min 0,0 km/h (0 Bft)
27.03.2012 09:50 17,4 C 7,5 C 0,3 UV-I 8,0 C 48 % 81 % 100 % 1036,5 hPa 0,0 l/m 1,6 km/h (1 Bft) 2 min 0 min 6,8 km/h (2 Bft)
27.03.2012 09:52 17,4 C 7,6 C 0,3 UV-I 8,3 C 48 % 80 % 100 % 1036,5 hPa 0,0 l/m 1,2 km/h (1 Bft) 2 min 0 min 0,0 km/h (0 Bft)
27.03.2012 09:54 17,4 C 7,7 C 0,5 UV-I 8,6 C 48 % 80 % 100 % 1036,5 hPa 0,0 l/m 0,8 km/h (0 Bft) 2 min 0 min 0,0 km/h (0 Bft)
27.03.2012 09:56 17,4 C 7,8 C 0,5 UV-I 8,7 C 48 % 80 % 100 % 1036,5 hPa 0,0 l/m 0,4 km/h (0 Bft) 2 min 0 min 0,0 km/h (0 Bft)
27.03.2012 09:58 17,4 C 7,9 C 0,5 UV-I 8,6 C 48 % 80 % 100 % 1036,5 hPa 0,0 l/m 0,4 km/h (0 Bft) 2 min 0 min 0,0 km/h (0 Bft)
27.03.2012 10:00 17,4 C 8,0 C 0,4 UV-I 8,7 C 48 % 78 % 100 % 1036,5 hPa 0,0 l/m 1,2 km/h (1 Bft) 2 min 0 min 10,0 km/h (2 Bft)
27.03.2012 10:02 17,5 C 8,0 C 0,4 UV-I 8,7 C 48 % 78 % 100 % 1036,5 hPa 0,0 l/m 2,0 km/h (1 Bft) 2 min 0 min 7,2 km/h (2 Bft)
27.03.2012 10:04 17,4 C 8,2 C 0,5 UV-I 8,4 C 48 % 78 % 100 % 1036,5 hPa 0,0 l/m 3,2 km/h (1 Bft) 2 min 0 min 5,6 km/h (1 Bft)
27.03.2012 10:06 17,4 C 8,3 C 0,5 UV-I 8,3 C 48 % 78 % 100 % 1036,7 hPa 0,0 l/m 3,6 km/h (1 Bft) 2 min 0 min 5,6 km/h (1 Bft)
27.03.2012 10:08 17,5 C 8,3 C 0,5 UV-I 8,3 C 48 % 78 % 100 % 1036,7 hPa 0,0 l/m 4,4 km/h (1 Bft) 2 min 0 min 10,4 km/h (2 Bft)
27.03.2012 10:10 17,4 C 8,5 C 0,5 UV-I 8,1 C 48 % 77 % 100 % 1036,7 hPa 0,0 l/m 5,2 km/h (1 Bft) 2 min 0 min 0,0 km/h (0 Bft)
27.03.2012 10:12 17,5 C 8,5 C 0,5 UV-I 8,2 C 48 % 75 % 100 % 1036,7 hPa 0,0 l/m 4,4 km/h (1 Bft) 2 min 0 min 0,0 km/h (0 Bft)
27.03.2012 10:14 17,5 C 8,7 C 0,8 UV-I 8,1 C 48 % 76 % 100 % 1036,7 hPa 0,0 l/m 4,8 km/h (1 Bft) 2 min 0 min 10,4 km/h (2 Bft)
27.03.2012 10:16 17,5 C 8,8 C 0,8 UV-I 8,0 C 48 % 75 % 100 % 1036,7 hPa 0,0 l/m 4,8 km/h (1 Bft) 2 min 0 min 0,0 km/h (0 Bft)
27.03.2012 10:18 17,5 C 8,8 C 0,8 UV-I 8,0 C 48 % 75 % 100 % 1036,7 hPa 0,0 l/m 4,8 km/h (1 Bft) 2 min 0 min 7,6 km/h (2 Bft)
27.03.2012 10:20 17,5 C 9,0 C 0,8 UV-I 7,9 C 48 % 74 % 100 % 1036,7 hPa 0,0 l/m 4,8 km/h (1 Bft) 2 min 0 min 8,0 km/h (2 Bft)
27.03.2012 10:22 17,5 C 9,0 C 0,8 UV-I 8,0 C 48 % 74 % 100 % 1036,7 hPa 0,0 l/m 5,2 km/h (1 Bft) 2 min 0 min 6,0 km/h (2 Bft)
27.03.2012 10:24 17,5 C 9,2 C 1,0 UV-I 7,9 C 48 % 74 % 100 % 1036,7 hPa 0,0 l/m 4,8 km/h (1 Bft) 2 min 0 min 6,0 km/h (2 Bft)
27.03.2012 10:26 17,5 C 9,2 C 1,0 UV-I 8,2 C 48 % 73 % 100 % 1036,7 hPa 0,0 l/m 4,0 km/h (1 Bft) 2 min 0 min 11,2 km/h (2 Bft)
27.03.2012 10:28 17,5 C 9,3 C 1,0 UV-I 8,2 C 48 % 73 % 100 % 1036,7 hPa 0,0 l/m 4,8 km/h (1 Bft) 2 min 0 min 11,6 km/h (2 Bft)
27.03.2012 10:30 17,5 C 9,5 C 1,2 UV-I 8,3 C 48 % 72 % 100 % 1036,7 hPa 0,0 l/m 4,0 km/h (1 Bft) 2 min 0 min 0,0 km/h (0 Bft)
27.03.2012 10:32 17,6 C 9,5 C 1,2 UV-I 8,7 C 48 % 72 % 100 % 1036,7 hPa 0,0 l/m 2,8 km/h (1 Bft) 2 min 0 min 6,8 km/h (2 Bft)
27.03.2012 10:34 17,6 C 9,6 C 1,3 UV-I 8,6 C 48 % 72 % 100 % 1036,7 hPa 0,0 l/m 3,2 km/h (1 Bft) 2 min 0 min 0,0 km/h (0 Bft)
27.03.2012 10:36 17,6 C 9,6 C 1,3 UV-I 8,8 C 48 % 71 % 100 % 1036,7 hPa 0,0 l/m 2,8 km/h (1 Bft) 2 min 0 min 0,0 km/h (0 Bft)
27.03.2012 10:38 17,6 C 9,9 C 1,3 UV-I 8,7 C 48 % 72 % 100 % 1036,7 hPa 0,0 l/m 2,0 km/h (1 Bft) 2 min 0 min 12,8 km/h (3 Bft)
27.03.2012 10:40 17,6 C 9,9 C 1,4 UV-I 8,8 C 48 % 70 % 100 % 1036,7 hPa 0,0 l/m 2,0 km/h (1 Bft) 2 min 0 min 4,8 km/h (1 Bft)
27.03.2012 10:42 17,6 C 10,1 C 1,4 UV-I 8,8 C 48 % 71 % 100 % 1036,7 hPa 0,0 l/m 3,2 km/h (1 Bft) 2 min 0 min 6,0 km/h (2 Bft)
27.03.2012 10:44 17,6 C 10,1 C 1,6 UV-I 8,8 C 48 % 71 % 100 % 1036,7 hPa 0,0 l/m 2,4 km/h (1 Bft) 2 min 0 min 4,4 km/h (1 Bft)
27.03.2012 10:46 17,6 C 10,2 C 1,6 UV-I 8,8 C 48 % 70 % 100 % 1037,0 hPa 0,0 l/m 2,8 km/h (1 Bft) 2 min 0 min 8,0 km/h (2 Bft)
27.03.2012 10:48 17,6 C 10,3 C 1,6 UV-I 8,8 C 48 % 70 % 100 % 1037,0 hPa 0,0 l/m 3,6 km/h (1 Bft) 2 min 0 min 4,0 km/h (1 Bft)
27.03.2012 10:50 17,6 C 10,4 C 1,7 UV-I 8,7 C 48 % 70 % 100 % 1037,0 hPa 0,0 l/m 3,6 km/h (1 Bft) 2 min 0 min 0,0 km/h (0 Bft)
27.03.2012 10:52 17,6 C 10,5 C 1,7 UV-I 8,9 C 49 % 71 % 100 % 1037,0 hPa 0,0 l/m 2,8 km/h (1 Bft) 2 min 0 min 0,0 km/h (0 Bft)
27.03.2012 10:54 17,6 C 10,6 C 1,9 UV-I 9,2 C 49 % 70 % 100 % 1037,0 hPa 0,0 l/m 2,4 km/h (1 Bft) 2 min 0 min 6,0 km/h (2 Bft)
27.03.2012 10:56 17,6 C 10,8 C 1,9 UV-I 9,1 C 49 % 70 % 100 % 1037,0 hPa 0,0 l/m 3,2 km/h (1 Bft) 2 min 0 min 4,0 km/h (1 Bft)
27.03.2012 10:58 17,6 C 10,9 C 1,9 UV-I 8,9 C 48 % 71 % 100 % 1037,0 hPa 0,0 l/m 2,8 km/h (1 Bft) 2 min 0 min 13,3 km/h (3 Bft)
27.03.2012 11:00 17,7 C 10,9 C 2,1 UV-I 9,1 C 49 % 70 % 100 % 1037,0 hPa 0,0 l/m 2,4 km/h (1 Bft) 2 min 0 min 0,0 km/h (0 Bft)
27.03.2012 11:02 17,6 C 11,1 C 2,1 UV-I 8,9 C 49 % 70 % 100 % 1037,0 hPa 0,0 l/m 3,2 km/h (1 Bft) 2 min 0 min 7,6 km/h (2 Bft)
27.03.2012 11:04 17,7 C 11,1 C 2,3 UV-I 9,1 C 49 % 69 % 100 % 1037,0 hPa 0,0 l/m 3,6 km/h (1 Bft) 2 min 0 min 10,4 km/h (2 Bft)
27.03.2012 11:06 17,7 C 11,2 C 2,3 UV-I 8,9 C 49 % 70 % 100 % 1037,0 hPa 0,0 l/m 3,6 km/h (1 Bft) 2 min 0 min 4,0 km/h (1 Bft)
27.03.2012 11:08 17,7 C 11,2 C 2,3 UV-I 8,9 C 49 % 70 % 100 % 1037,0 hPa 0,0 l/m 3,6 km/h (1 Bft) 2 min 0 min 13,7 km/h (3 Bft)
27.03.2012 11:10 17,7 C 11,3 C 2,6 UV-I 8,9 C 49 % 70 % 100 % 1037,0 hPa 0,0 l/m 3,6 km/h (1 Bft) 2 min 0 min 6,0 km/h (2 Bft)
27.03.2012 11:12 17,7 C 11,5 C 2,6 UV-I 8,8 C 49 % 71 % 100 % 1037,0 hPa 0,0 l/m 4,8 km/h (1 Bft) 2 min 0 min 6,4 km/h (2 Bft)
27.03.2012 11:14 17,7 C 11,6 C 2,8 UV-I 8,8 C 49 % 71 % 100 % 1037,0 hPa 0,0 l/m 4,4 km/h (1 Bft) 2 min 0 min 0,0 km/h (0 Bft)
27.03.2012 11:16 17,7 C 11,7 C 2,8 UV-I 9,0 C 49 % 71 % 100 % 1037,0 hPa 0,0 l/m 3,6 km/h (1 Bft) 2 min 0 min 8,0 km/h (2 Bft)
27.03.2012 11:18 17,7 C 11,9 C 2,8 UV-I 8,9 C 49 % 69 % 100 % 1037,0 hPa 0,0 l/m 3,6 km/h (1 Bft) 2 min 0 min 0,0 km/h (0 Bft)
27.03.2012 11:20 17,7 C 12,0 C 2,8 UV-I 9,0 C 49 % 69 % 100 % 1037,0 hPa 0,0 l/m 3,6 km/h (1 Bft) 2 min 0 min 4,8 km/h (1 Bft)
27.03.2012 11:22 17,7 C 12,0 C 2,8 UV-I 8,7 C 49 % 70 % 100 % 1037,0 hPa 0,0 l/m 2,8 km/h (1 Bft) 2 min 0 min 0,0 km/h (0 Bft)
27.03.2012 11:24 17,8 C 12,1 C 2,7 UV-I 8,6 C 49 % 69 % 100 % 1037,0 hPa 0,0 l/m 2,8 km/h (1 Bft) 2 min 0 min 0,0 km/h (0 Bft)
27.03.2012 11:26 17,8 C 12,2 C 2,7 UV-I 8,5 C 49 % 69 % 100 % 1036,9 hPa 0,0 l/m 3,6 km/h (1 Bft) 2 min 0 min 7,2 km/h (2 Bft)
27.03.2012 11:28 17,8 C 12,3 C 2,7 UV-I 8,6 C 49 % 69 % 100 % 1036,9 hPa 0,0 l/m 2,8 km/h (1 Bft) 2 min 0 min 4,0 km/h (1 Bft)
27.03.2012 11:30 17,8 C 12,4 C 3,2 UV-I 8,7 C 49 % 67 % 100 % 1036,9 hPa 0,0 l/m 3,2 km/h (1 Bft) 2 min 0 min 13,3 km/h (3 Bft)
27.03.2012 11:32 17,8 C 12,4 C 3,2 UV-I 8,7 C 49 % 68 % 100 % 1036,9 hPa 0,0 l/m 3,6 km/h (1 Bft) 2 min 0 min 4,8 km/h (1 Bft)
27.03.2012 11:34 17,8 C 12,6 C 3,2 UV-I 8,6 C 49 % 67 % 100 % 1036,9 hPa 0,0 l/m 3,6 km/h (1 Bft) 2 min 0 min 4,0 km/h (1 Bft)
27.03.2012 11:36 17,8 C 12,7 C 3,2 UV-I 8,6 C 49 % 67 % 100 % 1036,9 hPa 0,0 l/m 3,6 km/h (1 Bft) 2 min 0 min 6,4 km/h (2 Bft)
27.03.2012 11:38 17,8 C 12,7 C 3,2 UV-I 8,6 C 49 % 66 % 100 % 1036,9 hPa 0,0 l/m 4,4 km/h (1 Bft) 2 min 0 min 10,4 km/h (2 Bft)
27.03.2012 11:40 17,8 C 12,8 C 3,6 UV-I 8,5 C 49 % 66 % 100 % 1036,9 hPa 0,0 l/m 4,8 km/h (1 Bft) 2 min 0 min 4,8 km/h (1 Bft)
27.03.2012 11:42 17,8 C 12,9 C 3,6 UV-I 8,5 C 49 % 66 % 100 % 1036,9 hPa 0,0 l/m 3,6 km/h (1 Bft) 2 min 0 min 0,0 km/h (0 Bft)
27.03.2012 11:44 17,9 C 12,9 C 3,7 UV-I 8,7 C 49 % 65 % 100 % 1036,9 hPa 0,0 l/m 4,0 km/h (1 Bft) 2 min 0 min 5,2 km/h (1 Bft)
27.03.2012 11:46 17,9 C 13,1 C 3,7 UV-I 8,6 C 49 % 65 % 100 % 1036,9 hPa 0,0 l/m 5,2 km/h (1 Bft) 2 min 0 min 12,0 km/h (2 Bft)
27.03.2012 11:48 17,9 C 13,1 C 3,7 UV-I 8,3 C 49 % 66 % 100 % 1036,9 hPa 0,0 l/m 5,6 km/h (1 Bft) 2 min 0 min 5,2 km/h (1 Bft)
27.03.2012 11:50 17,9 C 13,1 C 3,5 UV-I 8,2 C 49 % 65 % 100 % 1036,9 hPa 0,0 l/m 5,2 km/h (1 Bft) 2 min 0 min 9,2 km/h (2 Bft)
27.03.2012 11:52 17,9 C 13,2 C 3,5 UV-I 8,0 C 49 % 66 % 100 % 1036,9 hPa 0,0 l/m 5,6 km/h (1 Bft) 2 min 0 min 5,6 km/h (1 Bft)
27.03.2012 11:54 17,9 C 13,3 C 3,7 UV-I 7,9 C 49 % 65 % 100 % 1036,9 hPa 0,0 l/m 6,0 km/h (2 Bft) 2 min 0 min 12,4 km/h (3 Bft)
27.03.2012 11:56 17,9 C 13,2 C 3,7 UV-I 8,0 C 49 % 66 % 100 % 1036,9 hPa 0,0 l/m 6,4 km/h (2 Bft) 2 min 0 min 5,2 km/h (1 Bft)
27.03.2012 11:58 18,0 C 13,3 C 3,7 UV-I 8,0 C 49 % 66 % 100 % 1036,9 hPa 0,0 l/m 4,8 km/h (1 Bft) 2 min 0 min 16,9 km/h (3 Bft)
27.03.2012 12:00 18,0 C 13,4 C 3,9 UV-I 8,1 C 49 % 66 % 100 % 1036,9 hPa 0,0 l/m 5,2 km/h (1 Bft) 2 min 0 min 8,8 km/h (2 Bft)
27.03.2012 12:02 18,0 C 13,4 C 3,9 UV-I 8,3 C 49 % 66 % 100 % 1036,9 hPa 0,0 l/m 4,4 km/h (1 Bft) 2 min 0 min 0,0 km/h (0 Bft)
27.03.2012 12:04 18,0 C 13,4 C 3,9 UV-I 8,4 C 49 % 66 % 100 % 1036,9 hPa 0,0 l/m 4,4 km/h (1 Bft) 2 min 0 min 10,0 km/h (2 Bft)
27.03.2012 12:06 18,0 C 13,6 C 3,9 UV-I 8,2 C 49 % 65 % 100 % 1037,2 hPa 0,0 l/m 4,4 km/h (1 Bft) 2 min 0 min 10,0 km/h (2 Bft)
27.03.2012 12:08 18,0 C 13,6 C 3,9 UV-I 8,0 C 49 % 65 % 100 % 1037,2 hPa 0,0 l/m 5,6 km/h (1 Bft) 2 min 0 min 7,6 km/h (2 Bft)
27.03.2012 12:10 18,0 C 13,7 C 3,9 UV-I 8,0 C 49 % 65 % 100 % 1037,2 hPa 0,0 l/m 6,4 km/h (2 Bft) 2 min 0 min 4,8 km/h (1 Bft)
27.03.2012 12:12 18,0 C 13,8 C 3,9 UV-I 8,0 C 49 % 65 % 100 % 1037,2 hPa 0,0 l/m 6,8 km/h (2 Bft) 2 min 0 min 7,6 km/h (2 Bft)
27.03.2012 12:14 18,0 C 13,9 C 3,9 UV-I 8,0 C 49 % 65 % 100 % 1037,2 hPa 0,0 l/m 7,2 km/h (2 Bft) 2 min 0 min 8,0 km/h (2 Bft)
27.03.2012 12:16 18,0 C 14,0 C 3,9 UV-I 8,0 C 49 % 65 % 100 % 1037,2 hPa 0,0 l/m 6,4 km/h (2 Bft) 2 min 0 min 6,8 km/h (2 Bft)
27.03.2012 12:18 18,0 C 14,3 C 3,9 UV-I 7,6 C 49 % 65 % 100 % 1037,2 hPa 0,0 l/m 6,8 km/h (2 Bft) 2 min 0 min 12,4 km/h (3 Bft)
27.03.2012 12:20 18,1 C 14,4 C 3,8 UV-I 7,6 C 49 % 65 % 100 % 1037,2 hPa 0,0 l/m 6,0 km/h (2 Bft) 2 min 0 min 6,8 km/h (2 Bft)
27.03.2012 12:22 18,1 C 14,5 C 3,8 UV-I 7,7 C 49 % 64 % 100 % 1037,2 hPa 0,0 l/m 6,8 km/h (2 Bft) 2 min 0 min 6,0 km/h (2 Bft)
27.03.2012 12:24 18,1 C 14,7 C 3,4 UV-I 7,5 C 49 % 64 % 100 % 1037,2 hPa 0,0 l/m 6,8 km/h (2 Bft) 2 min 0 min 12,4 km/h (3 Bft)
27.03.2012 12:26 18,1 C 14,7 C 3,4 UV-I 7,4 C 49 % 63 % 100 % 1037,2 hPa 0,0 l/m 6,8 km/h (2 Bft) 2 min 0 min 9,6 km/h (2 Bft)
27.03.2012 12:28 18,1 C 14,9 C 3,4 UV-I 7,2 C 49 % 62 % 100 % 1037,2 hPa 0,0 l/m 6,8 km/h (2 Bft) 2 min 0 min 9,6 km/h (2 Bft)
27.03.2012 12:30 18,1 C 14,9 C 2,4 UV-I 7,1 C 49 % 62 % 100 % 1037,2 hPa 0,0 l/m 7,2 km/h (2 Bft) 2 min 0 min 14,9 km/h (3 Bft)
27.03.2012 12:32 18,2 C 14,8 C 2,4 UV-I 7,2 C 50 % 62 % 100 % 1037,2 hPa 0,0 l/m 7,6 km/h (2 Bft) 2 min 0 min 8,0 km/h (2 Bft)
27.03.2012 12:34 18,2 C 14,9 C 1,6 UV-I 7,2 C 50 % 63 % 100 % 1037,2 hPa 0,0 l/m 7,6 km/h (2 Bft) 2 min 0 min 13,7 km/h (3 Bft)
27.03.2012 12:36 18,2 C 15,0 C 1,6 UV-I 7,3 C 50 % 63 % 100 % 1037,2 hPa 0,0 l/m 7,2 km/h (2 Bft) 2 min 0 min 8,0 km/h (2 Bft)
27.03.2012 12:38 18,2 C 15,1 C 1,6 UV-I 7,3 C 50 % 61 % 100 % 1037,2 hPa 0,0 l/m 6,8 km/h (2 Bft) 2 min 0 min 4,0 km/h (1 Bft)
27.03.2012 12:40 18,2 C 15,1 C 2,0 UV-I 7,5 C 50 % 61 % 100 % 1037,2 hPa 0,0 l/m 6,8 km/h (2 Bft) 2 min 0 min 10,0 km/h (2 Bft)
27.03.2012 12:42 18,3 C 15,3 C 2,0 UV-I 7,5 C 50 % 61 % 100 % 1037,2 hPa 0,0 l/m 6,0 km/h (2 Bft) 2 min 0 min 16,1 km/h (3 Bft)
27.03.2012 12:44 18,3 C 15,3 C 3,6 UV-I 7,6 C 50 % 60 % 100 % 1037,2 hPa 0,0 l/m 6,4 km/h (2 Bft) 2 min 0 min 6,0 km/h (2 Bft)
27.03.2012 12:46 18,2 C 15,5 C 3,6 UV-I 7,4 C 50 % 60 % 100 % 1037,1 hPa 0,0 l/m 6,0 km/h (2 Bft) 2 min 0 min 12,0 km/h (2 Bft)
27.03.2012 12:48 18,2 C 15,6 C 3,6 UV-I 7,4 C 50 % 60 % 100 % 1037,1 hPa 0,0 l/m 6,8 km/h (2 Bft) 2 min 0 min 18,1 km/h (3 Bft)
27.03.2012 12:50 18,4 C 15,6 C 3,6 UV-I 7,5 C 50 % 59 % 100 % 1037,1 hPa 0,0 l/m 7,2 km/h (2 Bft) 2 min 0 min 11,2 km/h (2 Bft)
27.03.2012 12:52 18,4 C 15,7 C 3,6 UV-I 7,4 C 50 % 57 % 100 % 1037,1 hPa 0,0 l/m 7,6 km/h (2 Bft) 2 min 0 min 8,8 km/h (2 Bft)
27.03.2012 12:54 18,4 C 15,7 C 3,5 UV-I 7,2 C 50 % 58 % 100 % 1037,1 hPa 0,0 l/m 8,8 km/h (2 Bft) 2 min 0 min 19,7 km/h (3 Bft)
27.03.2012 12:56 18,4 C 15,8 C 3,5 UV-I 7,0 C 50 % 58 % 100 % 1037,1 hPa 0,0 l/m 8,4 km/h (2 Bft) 2 min 0 min 10,4 km/h (2 Bft)
27.03.2012 12:58 18,4 C 15,9 C 3,5 UV-I 6,9 C 50 % 58 % 100 % 1037,1 hPa 0,0 l/m 8,8 km/h (2 Bft) 2 min 0 min 19,7 km/h (3 Bft)
27.03.2012 13:00 18,5 C 15,9 C 3,7 UV-I 6,9 C 50 % 58 % 100 % 1037,1 hPa 0,0 l/m 8,8 km/h (2 Bft) 2 min 0 min 8,8 km/h (2 Bft)
27.03.2012 13:02 18,5 C 16,1 C 3,7 UV-I 6,8 C 50 % 57 % 100 % 1037,1 hPa 0,0 l/m 8,0 km/h (2 Bft) 2 min 0 min 0,0 km/h (0 Bft)
27.03.2012 13:04 18,5 C 16,0 C 3,3 UV-I 6,9 C 50 % 56 % 100 % 1037,1 hPa 0,0 l/m 7,6 km/h (2 Bft) 2 min 0 min 7,2 km/h (2 Bft)
27.03.2012 13:06 18,6 C 16,1 C 3,3 UV-I 6,8 C 50 % 55 % 100 % 1037,1 hPa 0,0 l/m 8,0 km/h (2 Bft) 2 min 0 min 11,2 km/h (2 Bft)
27.03.2012 13:08 18,6 C 16,0 C 3,3 UV-I 6,7 C 50 % 56 % 100 % 1037,1 hPa 0,0 l/m 8,0 km/h (2 Bft) 2 min 0 min 8,4 km/h (2 Bft)
27.03.2012 13:10 18,6 C 16,1 C 2,9 UV-I 6,5 C 50 % 57 % 100 % 1037,1 hPa 0,0 l/m 7,2 km/h (2 Bft) 2 min 0 min 6,0 km/h (2 Bft)
27.03.2012 13:12 18,6 C 16,2 C 2,9 UV-I 6,2 C 50 % 57 % 100 % 1037,1 hPa 0,0 l/m 8,4 km/h (2 Bft) 2 min 0 min 7,6 km/h (2 Bft)
27.03.2012 13:14 18,7 C 16,4 C 3,0 UV-I 6,0 C 50 % 57 % 100 % 1037,1 hPa 0,0 l/m 7,2 km/h (2 Bft) 2 min 0 min 8,8 km/h (2 Bft)
27.03.2012 13:16 18,7 C 16,3 C 3,0 UV-I 6,0 C 50 % 55 % 100 % 1037,1 hPa 0,0 l/m 7,2 km/h (2 Bft) 2 min 0 min 6,0 km/h (2 Bft)
27.03.2012 13:18 18,8 C 16,3 C 3,0 UV-I 6,1 C 50 % 56 % 100 % 1037,1 hPa 0,0 l/m 7,2 km/h (2 Bft) 2 min 0 min 12,0 km/h (2 Bft)
27.03.2012 13:20 18,8 C 16,4 C 3,3 UV-I 6,0 C 50 % 56 % 100 % 1037,1 hPa 0,0 l/m 7,2 km/h (2 Bft) 2 min 0 min 7,6 km/h (2 Bft)
27.03.2012 13:22 18,9 C 16,5 C 3,3 UV-I 6,1 C 50 % 56 % 100 % 1037,1 hPa 0,0 l/m 7,2 km/h (2 Bft) 2 min 0 min 7,6 km/h (2 Bft)
27.03.2012 13:24 19,0 C 16,7 C 3,3 UV-I 6,0 C 50 % 55 % 100 % 1037,1 hPa 0,0 l/m 6,8 km/h (2 Bft) 2 min 0 min 11,6 km/h (2 Bft)
27.03.2012 13:26 19,0 C 16,7 C 3,3 UV-I 6,1 C 50 % 55 % 100 % 1037,2 hPa 0,0 l/m 8,0 km/h (2 Bft) 2 min 0 min 12,0 km/h (2 Bft)
27.03.2012 13:28 19,1 C 16,7 C 3,3 UV-I 6,0 C 50 % 54 % 100 % 1037,2 hPa 0,0 l/m 8,0 km/h (2 Bft) 2 min 0 min 12,8 km/h (3 Bft)
27.03.2012 13:30 19,2 C 16,8 C 2,9 UV-I 5,8 C 50 % 53 % 100 % 1037,2 hPa 0,0 l/m 7,6 km/h (2 Bft) 2 min 0 min 4,4 km/h (1 Bft)
27.03.2012 13:32 19,2 C 16,7 C 2,9 UV-I 5,7 C 50 % 52 % 100 % 1037,2 hPa 0,0 l/m 7,6 km/h (2 Bft) 2 min 0 min 9,2 km/h (2 Bft)
27.03.2012 13:34 19,2 C 16,7 C 3,1 UV-I 5,6 C 50 % 52 % 100 % 1037,2 hPa 0,0 l/m 9,6 km/h (2 Bft) 2 min 0 min 11,6 km/h (2 Bft)
27.03.2012 13:36 19,2 C 16,7 C 3,1 UV-I 5,5 C 49 % 53 % 100 % 1037,2 hPa 0,0 l/m 10,0 km/h (2 Bft) 2 min 0 min 15,7 km/h (3 Bft)
27.03.2012 13:38 19,4 C 16,8 C 3,1 UV-I 5,5 C 49 % 54 % 100 % 1037,2 hPa 0,0 l/m 9,2 km/h (2 Bft) 2 min 0 min 22,5 km/h (4 Bft)
27.03.2012 13:40 19,4 C 16,9 C 3,6 UV-I 5,7 C 49 % 53 % 100 % 1037,2 hPa 0,0 l/m 9,2 km/h (2 Bft) 2 min 0 min 4,0 km/h (1 Bft)
27.03.2012 13:42 19,5 C 17,1 C 3,6 UV-I 5,7 C 49 % 53 % 100 % 1037,2 hPa 0,0 l/m 9,6 km/h (2 Bft) 2 min 0 min 9,2 km/h (2 Bft)
27.03.2012 13:44 19,6 C 17,0 C 3,6 UV-I 6,1 C 49 % 53 % 100 % 1037,2 hPa 0,0 l/m 9,2 km/h (2 Bft) 2 min 0 min 5,2 km/h (1 Bft)
27.03.2012 13:46 19,6 C 17,3 C 3,6 UV-I 6,1 C 49 % 52 % 100 % 1037,8 hPa 0,0 l/m 7,6 km/h (2 Bft) 2 min 0 min 6,4 km/h (2 Bft)
27.03.2012 13:48 19,7 C 17,3 C 3,6 UV-I 6,3 C 49 % 51 % 100 % 1037,8 hPa 0,0 l/m 6,8 km/h (2 Bft) 2 min 0 min 10,8 km/h (2 Bft)
27.03.2012 13:50 19,7 C 17,5 C 3,7 UV-I 6,4 C 49 % 51 % 100 % 1037,8 hPa 0,0 l/m 6,8 km/h (2 Bft) 2 min 0 min 16,1 km/h (3 Bft)
27.03.2012 13:52 19,8 C 17,6 C 3,7 UV-I 6,4 C 49 % 49 % 100 % 1037,8 hPa 0,0 l/m 6,4 km/h (2 Bft) 2 min 2 min 6,0 km/h (2 Bft)
27.03.2012 13:54 19,8 C 17,7 C 3,8 UV-I 6,6 C 49 % 49 % 100 % 1037,8 hPa 0,0 l/m 6,4 km/h (2 Bft) 2 min 0 min 20,1 km/h (4 Bft)
27.03.2012 13:56 19,9 C 17,7 C 3,8 UV-I 6,5 C 49 % 49 % 100 % 1037,8 hPa 0,0 l/m 8,0 km/h (2 Bft) 2 min 0 min 20,1 km/h (4 Bft)
27.03.2012 13:58 20,0 C 17,6 C 3,8 UV-I 6,6 C 48 % 49 % 100 % 1037,8 hPa 0,0 l/m 9,2 km/h (2 Bft) 2 min 0 min 22,9 km/h (4 Bft)
27.03.2012 14:00 20,0 C 17,7 C 3,8 UV-I 6,4 C 48 % 48 % 100 % 1037,8 hPa 0,0 l/m 10,4 km/h (2 Bft) 2 min 0 min 20,1 km/h (4 Bft)
27.03.2012 14:02 20,0 C 17,9 C 3,8 UV-I 6,2 C 48 % 49 % 100 % 1037,8 hPa 0,0 l/m 10,8 km/h (2 Bft) 2 min 0 min 13,3 km/h (3 Bft)
27.03.2012 14:04 20,1 C 17,9 C 3,9 UV-I 6,2 C 48 % 48 % 100 % 1037,8 hPa 0,0 l/m 10,8 km/h (2 Bft) 2 min 0 min 10,4 km/h (2 Bft)
27.03.2012 14:06 20,2 C 17,9 C 3,9 UV-I 6,3 C 48 % 48 % 100 % 1039,1 hPa 0,0 l/m 11,2 km/h (2 Bft) 2 min 0 min 9,6 km/h (2 Bft)
27.03.2012 14:08 20,2 C 18,0 C 3,9 UV-I 6,2 C 48 % 48 % 100 % 1039,1 hPa 0,0 l/m 10,4 km/h (2 Bft) 2 min 0 min 24,1 km/h (4 Bft)
27.03.2012 14:10 20,3 C 18,0 C 4,1 UV-I 6,3 C 48 % 49 % 100 % 1039,1 hPa 0,0 l/m 11,2 km/h (2 Bft) 2 min 0 min 8,4 km/h (2 Bft)
27.03.2012 14:12 20,4 C 18,0 C 4,1 UV-I 6,4 C 48 % 49 % 100 % 1039,1 hPa 0,0 l/m 10,0 km/h (2 Bft) 2 min 0 min 10,4 km/h (2 Bft)
27.03.2012 14:14 20,4 C 18,0 C 3,7 UV-I 6,4 C 47 % 48 % 100 % 1039,1 hPa 0,0 l/m 10,4 km/h (2 Bft) 2 min 0 min 20,1 km/h (4 Bft)
27.03.2012 14:16 20,4 C 17,9 C 3,7 UV-I 6,5 C 47 % 48 % 100 % 1039,1 hPa 0,0 l/m 10,4 km/h (2 Bft) 2 min 0 min 8,4 km/h (2 Bft)
27.03.2012 14:18 20,5 C 18,0 C 3,7 UV-I 6,2 C 47 % 49 % 100 % 1039,1 hPa 0,0 l/m 11,2 km/h (2 Bft) 2 min 0 min 21,3 km/h (4 Bft)
27.03.2012 14:20 20,6 C 18,1 C 3,7 UV-I 5,9 C 47 % 48 % 100 % 1039,1 hPa 0,0 l/m 10,4 km/h (2 Bft) 2 min 0 min 5,6 km/h (1 Bft)
27.03.2012 14:22 20,6 C 18,3 C 3,7 UV-I 5,9 C 47 % 47 % 100 % 1039,1 hPa 0,0 l/m 9,2 km/h (2 Bft) 2 min 0 min 8,0 km/h (2 Bft)
27.03.2012 14:24 20,7 C 18,3 C 3,7 UV-I 6,1 C 47 % 47 % 100 % 1039,1 hPa 0,0 l/m 9,6 km/h (2 Bft) 2 min 0 min 8,0 km/h (2 Bft)
27.03.2012 14:26 20,7 C 18,4 C 3,7 UV-I 6,1 C 46 % 47 % 100 % 1039,3 hPa 0,0 l/m 9,6 km/h (2 Bft) 2 min 0 min 17,3 km/h (3 Bft)
27.03.2012 14:28 20,8 C 18,4 C 3,7 UV-I 6,0 C 46 % 48 % 100 % 1039,3 hPa 0,0 l/m 8,8 km/h (2 Bft) 2 min 0 min 4,8 km/h (1 Bft)
27.03.2012 14:30 20,8 C 18,4 C 3,5 UV-I 6,0 C 46 % 44 % 100 % 1039,3 hPa 0,0 l/m 8,0 km/h (2 Bft) 2 min 0 min 4,4 km/h (1 Bft)
27.03.2012 14:32 20,9 C 18,4 C 3,5 UV-I 6,1 C 46 % 43 % 100 % 1039,3 hPa 0,0 l/m 9,6 km/h (2 Bft) 2 min 0 min 25,7 km/h (4 Bft)
27.03.2012 14:34 20,9 C 18,3 C 3,4 UV-I 6,1 C 46 % 44 % 100 % 1039,3 hPa 0,0 l/m 10,0 km/h (2 Bft) 2 min 0 min 7,6 km/h (2 Bft)
27.03.2012 14:36 21,0 C 18,2 C 3,4 UV-I 6,0 C 46 % 44 % 100 % 1039,3 hPa 0,0 l/m 10,4 km/h (2 Bft) 2 min 0 min 16,1 km/h (3 Bft)
27.03.2012 14:38 21,0 C 18,2 C 3,4 UV-I 5,7 C 46 % 44 % 100 % 1039,3 hPa 0,0 l/m 10,8 km/h (2 Bft) 2 min 0 min 30,5 km/h (5 Bft)
27.03.2012 14:40 21,0 C 18,3 C 3,0 UV-I 5,2 C 46 % 45 % 100 % 1039,3 hPa 0,0 l/m 12,8 km/h (3 Bft) 2 min 0 min 16,1 km/h (3 Bft)
27.03.2012 14:42 21,1 C 18,3 C 3,0 UV-I 4,8 C 46 % 45 % 100 % 1039,3 hPa 0,0 l/m 13,7 km/h (3 Bft) 2 min 0 min 10,0 km/h (2 Bft)
27.03.2012 14:44 21,1 C 18,4 C 3,0 UV-I 4,6 C 47 % 44 % 100 % 1039,3 hPa 0,0 l/m 12,4 km/h (3 Bft) 2 min 0 min 14,5 km/h (3 Bft)
27.03.2012 14:46 21,2 C 18,4 C 3,0 UV-I 4,5 C 46 % 44 % 100 % 1039,0 hPa 0,0 l/m 13,3 km/h (3 Bft) 2 min 0 min 19,7 km/h (3 Bft)
27.03.2012 14:48 21,2 C 18,4 C 3,0 UV-I 4,5 C 46 % 44 % 100 % 1039,0 hPa 0,0 l/m 13,7 km/h (3 Bft) 2 min 0 min 21,7 km/h (4 Bft)
27.03.2012 14:50 21,2 C 18,5 C 3,2 UV-I 4,2 C 46 % 44 % 100 % 1039,0 hPa 0,0 l/m 13,3 km/h (3 Bft) 2 min 0 min 22,5 km/h (4 Bft)
27.03.2012 14:52 21,2 C 18,4 C 3,2 UV-I 4,3 C 45 % 44 % 100 % 1039,0 hPa 0,0 l/m 12,8 km/h (3 Bft) 2 min 0 min 9,2 km/h (2 Bft)
27.03.2012 14:54 21,2 C 18,4 C 3,3 UV-I 4,5 C 45 % 45 % 100 % 1039,0 hPa 0,0 l/m 12,8 km/h (3 Bft) 2 min 0 min 8,0 km/h (2 Bft)
27.03.2012 14:56 21,4 C 18,5 C 3,3 UV-I 4,7 C 46 % 45 % 100 % 1039,0 hPa 0,0 l/m 12,8 km/h (3 Bft) 2 min 0 min 14,1 km/h (3 Bft)
27.03.2012 14:58 21,4 C 18,4 C 3,3 UV-I 4,9 C 46 % 45 % 100 % 1039,0 hPa 0,0 l/m 12,0 km/h (2 Bft) 2 min 0 min 12,8 km/h (3 Bft)
27.03.2012 15:00 21,5 C 18,7 C 3,4 UV-I 4,7 C 46 % 47 % 100 % 1039,0 hPa 0,0 l/m 11,6 km/h (2 Bft) 2 min 0 min 14,9 km/h (3 Bft)
27.03.2012 15:02 21,5 C 18,6 C 3,4 UV-I 4,9 C 45 % 46 % 100 % 1039,0 hPa 0,0 l/m 10,4 km/h (2 Bft) 2 min 0 min 10,8 km/h (2 Bft)
27.03.2012 15:04 21,6 C 18,7 C 3,5 UV-I 4,9 C 45 % 45 % 100 % 1039,0 hPa 0,0 l/m 11,6 km/h (2 Bft) 2 min 0 min 26,5 km/h (4 Bft)
27.03.2012 15:06 21,6 C 18,7 C 3,5 UV-I 4,9 C 45 % 46 % 100 % 1038,1 hPa 0,0 l/m 12,0 km/h (2 Bft) 2 min 0 min 16,1 km/h (3 Bft)
27.03.2012 15:08 21,6 C 18,7 C 3,5 UV-I 4,9 C 44 % 47 % 100 % 1038,1 hPa 0,0 l/m 12,0 km/h (2 Bft) 2 min 0 min 14,5 km/h (3 Bft)
27.03.2012 15:10 21,7 C 18,8 C 3,2 UV-I 4,9 C 44 % 46 % 100 % 1038,1 hPa 0,0 l/m 10,8 km/h (2 Bft) 2 min 0 min 11,6 km/h (2 Bft)
27.03.2012 15:12 21,7 C 18,9 C 3,2 UV-I 4,9 C 44 % 46 % 100 % 1038,1 hPa 0,0 l/m 11,2 km/h (2 Bft) 2 min 0 min 15,3 km/h (3 Bft)
27.03.2012 15:14 21,8 C 18,8 C 3,3 UV-I 5,0 C 45 % 47 % 100 % 1038,1 hPa 0,0 l/m 12,4 km/h (3 Bft) 2 min 0 min 17,3 km/h (3 Bft)
27.03.2012 15:16 21,8 C 18,8 C 3,3 UV-I 5,0 C 45 % 47 % 100 % 1038,1 hPa 0,0 l/m 10,8 km/h (2 Bft) 2 min 0 min 10,4 km/h (2 Bft)
27.03.2012 15:18 21,8 C 18,8 C 3,3 UV-I 5,0 C 45 % 46 % 100 % 1038,1 hPa 0,0 l/m 10,8 km/h (2 Bft) 2 min 0 min 14,1 km/h (3 Bft)
27.03.2012 15:20 21,9 C 18,9 C 3,3 UV-I 5,0 C 45 % 47 % 100 % 1038,1 hPa 0,0 l/m 10,8 km/h (2 Bft) 2 min 0 min 16,1 km/h (3 Bft)
27.03.2012 15:22 22,0 C 18,9 C 3,3 UV-I 5,1 C 44 % 47 % 100 % 1038,1 hPa 0,0 l/m 10,8 km/h (2 Bft) 2 min 0 min 9,6 km/h (2 Bft)
27.03.2012 15:24 22,0 C 18,9 C 3,3 UV-I 5,1 C 44 % 46 % 100 % 1038,1 hPa 0,0 l/m 10,4 km/h (2 Bft) 2 min 0 min 16,9 km/h (3 Bft)
27.03.2012 15:26 22,0 C 18,9 C 3,3 UV-I 5,1 C 44 % 47 % 100 % 1038,2 hPa 0,0 l/m 11,2 km/h (2 Bft) 2 min 0 min 17,3 km/h (3 Bft)
27.03.2012 15:28 22,0 C 18,8 C 3,3 UV-I 5,1 C 44 % 48 % 100 % 1038,2 hPa 0,0 l/m 11,6 km/h (2 Bft) 2 min 0 min 18,1 km/h (3 Bft)
27.03.2012 15:30 22,1 C 18,8 C 3,1 UV-I 5,0 C 43 % 48 % 100 % 1038,2 hPa 0,0 l/m 12,4 km/h (3 Bft) 2 min 0 min 15,7 km/h (3 Bft)
27.03.2012 15:32 22,2 C 18,8 C 3,1 UV-I 4,9 C 43 % 47 % 100 % 1038,2 hPa 0,0 l/m 13,3 km/h (3 Bft) 2 min 0 min 20,5 km/h (4 Bft)
27.03.2012 15:34 22,2 C 18,8 C 3,1 UV-I 4,8 C 43 % 47 % 100 % 1038,2 hPa 0,0 l/m 14,1 km/h (3 Bft) 2 min 0 min 20,5 km/h (4 Bft)
27.03.2012 15:36 22,2 C 18,8 C 3,1 UV-I 4,7 C 43 % 47 % 100 % 1038,2 hPa 0,0 l/m 14,1 km/h (3 Bft) 2 min 0 min 10,8 km/h (2 Bft)
27.03.2012 15:38 22,2 C 18,8 C 3,1 UV-I 4,5 C 44 % 47 % 100 % 1038,2 hPa 0,0 l/m 14,1 km/h (3 Bft) 2 min 0 min 12,0 km/h (2 Bft)
27.03.2012 15:40 22,2 C 18,7 C 2,8 UV-I 4,4 C 44 % 48 % 100 % 1038,2 hPa 0,0 l/m 13,7 km/h (3 Bft) 2 min 0 min 14,5 km/h (3 Bft)
27.03.2012 15:42 22,3 C 18,9 C 2,8 UV-I 4,2 C 44 % 48 % 100 % 1038,2 hPa 0,0 l/m 12,8 km/h (3 Bft) 2 min 0 min 10,8 km/h (2 Bft)
27.03.2012 15:44 22,3 C 18,9 C 2,4 UV-I 4,1 C 44 % 48 % 100 % 1038,2 hPa 0,0 l/m 11,6 km/h (2 Bft) 2 min 0 min 12,4 km/h (3 Bft)
27.03.2012 15:46 22,3 C 18,8 C 2,4 UV-I 4,2 C 44 % 48 % 100 % 1038,2 hPa 0,0 l/m 10,8 km/h (2 Bft) 2 min 0 min 14,1 km/h (3 Bft)
27.03.2012 15:48 22,3 C 18,8 C 2,4 UV-I 4,1 C 44 % 49 % 100 % 1038,2 hPa 0,0 l/m 10,4 km/h (2 Bft) 2 min 0 min 13,3 km/h (3 Bft)
27.03.2012 15:50 22,3 C 18,8 C 2,3 UV-I 4,0 C 44 % 48 % 100 % 1038,2 hPa 0,0 l/m 10,8 km/h (2 Bft) 2 min 0 min 22,1 km/h (4 Bft)
27.03.2012 15:52 22,4 C 18,7 C 2,3 UV-I 3,9 C 44 % 49 % 100 % 1038,2 hPa 0,0 l/m 11,6 km/h (2 Bft) 2 min 0 min 16,5 km/h (3 Bft)
27.03.2012 15:54 22,4 C 18,7 C 2,3 UV-I 3,7 C 44 % 49 % 100 % 1038,2 hPa 0,0 l/m 12,0 km/h (2 Bft) 2 min 0 min 8,0 km/h (2 Bft)
27.03.2012 15:56 22,4 C 18,8 C 2,3 UV-I 3,5 C 44 % 48 % 100 % 1038,2 hPa 0,0 l/m 11,6 km/h (2 Bft) 2 min 0 min 13,3 km/h (3 Bft)
27.03.2012 15:58 22,4 C 18,7 C 2,3 UV-I 3,6 C 44 % 48 % 100 % 1038,2 hPa 0,0 l/m 11,6 km/h (2 Bft) 2 min 0 min 18,5 km/h (3 Bft)
27.03.2012 16:00 22,4 C 18,7 C 2,3 UV-I 3,5 C 44 % 48 % 100 % 1038,2 hPa 0,0 l/m 13,3 km/h (3 Bft) 2 min 0 min 16,5 km/h (3 Bft)
27.03.2012 16:02 22,4 C 18,6 C 2,3 UV-I 3,3 C 43 % 49 % 94 % 1038,2 hPa 0,0 l/m 14,1 km/h (3 Bft) 2 min 0 min 17,3 km/h (3 Bft)
27.03.2012 16:04 22,4 C 18,5 C 2,3 UV-I 3,4 C 43 % 49 % 97 % 1038,2 hPa 0,0 l/m 13,7 km/h (3 Bft) 2 min 0 min 15,7 km/h (3 Bft)
27.03.2012 16:06 22,4 C 18,5 C 2,3 UV-I 3,3 C 43 % 49 % 94 % 1037,7 hPa 0,0 l/m 15,7 km/h (3 Bft) 2 min 0 min 20,9 km/h (4 Bft)
27.03.2012 16:08 22,4 C 18,5 C 2,3 UV-I 3,1 C 43 % 49 % 89 % 1037,7 hPa 0,0 l/m 16,5 km/h (3 Bft) 2 min 0 min 22,9 km/h (4 Bft)
27.03.2012 16:10 22,4 C 18,5 C 2,2 UV-I 3,1 C 43 % 49 % 89 % 1037,7 hPa 0,0 l/m 15,7 km/h (3 Bft) 2 min 0 min 12,0 km/h (2 Bft)
27.03.2012 16:12 22,5 C 18,7 C 2,2 UV-I 2,9 C 43 % 49 % 83 % 1037,7 hPa 0,0 l/m 14,5 km/h (3 Bft) 2 min 0 min 12,8 km/h (3 Bft)
27.03.2012 16:14 22,5 C 18,7 C 2,5 UV-I 3,1 C 43 % 49 % 89 % 1037,7 hPa 0,0 l/m 13,7 km/h (3 Bft) 2 min 0 min 11,6 km/h (2 Bft)
27.03.2012 16:16 22,5 C 18,8 C 2,5 UV-I 3,1 C 43 % 50 % 89 % 1037,7 hPa 0,0 l/m 12,8 km/h (3 Bft) 2 min 0 min 15,3 km/h (3 Bft)
27.03.2012 16:18 22,5 C 18,8 C 2,5 UV-I 3,3 C 43 % 49 % 94 % 1037,7 hPa 0,0 l/m 12,0 km/h (2 Bft) 2 min 0 min 25,3 km/h (4 Bft)
27.03.2012 16:20 22,6 C 18,9 C 2,3 UV-I 3,3 C 43 % 50 % 94 % 1037,7 hPa 0,0 l/m 12,0 km/h (2 Bft) 2 min 0 min 18,5 km/h (3 Bft)
27.03.2012 16:22 22,6 C 18,8 C 2,3 UV-I 3,3 C 43 % 50 % 94 % 1037,7 hPa 0,0 l/m 12,8 km/h (3 Bft) 2 min 0 min 24,1 km/h (4 Bft)
27.03.2012 16:24 22,6 C 18,7 C 2,3 UV-I 3,4 C 43 % 50 % 97 % 1037,7 hPa 0,0 l/m 13,3 km/h (3 Bft) 2 min 0 min 12,4 km/h (3 Bft)
27.03.2012 16:26 22,6 C 18,8 C 2,3 UV-I 3,2 C 42 % 50 % 91 % 1037,7 hPa 0,0 l/m 13,3 km/h (3 Bft) 2 min 0 min 17,7 km/h (3 Bft)
27.03.2012 16:28 22,6 C 18,7 C 2,3 UV-I 3,2 C 43 % 50 % 91 % 1037,7 hPa 0,0 l/m 14,1 km/h (3 Bft) 2 min 0 min 26,9 km/h (4 Bft)
27.03.2012 16:30 22,6 C 18,7 C 2,3 UV-I 3,1 C 42 % 51 % 89 % 1037,7 hPa 0,0 l/m 14,1 km/h (3 Bft) 2 min 0 min 7,6 km/h (2 Bft)
27.03.2012 16:32 22,6 C 18,6 C 2,3 UV-I 3,0 C 43 % 51 % 86 % 1037,7 hPa 0,0 l/m 13,7 km/h (3 Bft) 2 min 0 min 19,3 km/h (3 Bft)
27.03.2012 16:34 22,6 C 18,5 C 1,8 UV-I 2,9 C 43 % 51 % 83 % 1037,7 hPa 0,0 l/m 13,7 km/h (3 Bft) 2 min 0 min 17,3 km/h (3 Bft)
27.03.2012 16:36 22,6 C 18,5 C 1,8 UV-I 2,8 C 42 % 51 % 80 % 1037,7 hPa 0,0 l/m 13,3 km/h (3 Bft) 0 min 0 min 11,2 km/h (2 Bft)
27.03.2012 16:38 22,6 C 18,7 C 1,8 UV-I 2,6 C 43 % 52 % 74 % 1037,7 hPa 0,0 l/m 12,8 km/h (3 Bft) 0 min 0 min 12,8 km/h (3 Bft)
27.03.2012 16:40 22,6 C 18,7 C 2,0 UV-I 2,7 C 43 % 52 % 77 % 1037,7 hPa 0,0 l/m 11,2 km/h (2 Bft) 0 min 0 min 14,1 km/h (3 Bft)
27.03.2012 16:42 22,6 C 18,7 C 2,0 UV-I 2,8 C 43 % 52 % 80 % 1037,7 hPa 0,0 l/m 11,6 km/h (2 Bft) 0 min 0 min 17,7 km/h (3 Bft)
27.03.2012 16:44 22,7 C 18,7 C 2,2 UV-I 2,9 C 43 % 52 % 83 % 1037,7 hPa 0,0 l/m 12,0 km/h (2 Bft) 2 min 0 min 24,9 km/h (4 Bft)
27.03.2012 16:46 22,7 C 18,7 C 2,2 UV-I 3,0 C 42 % 53 % 86 % 1037,0 hPa 0,0 l/m 12,8 km/h (3 Bft) 2 min 0 min 16,9 km/h (3 Bft)
27.03.2012 16:48 22,7 C 18,7 C 2,2 UV-I 3,0 C 42 % 52 % 86 % 1037,0 hPa 0,0 l/m 13,7 km/h (3 Bft) 2 min 0 min 32,5 km/h (5 Bft)
27.03.2012 16:50 22,7 C 18,7 C 2,2 UV-I 3,1 C 43 % 52 % 89 % 1037,0 hPa 0,0 l/m 14,9 km/h (3 Bft) 2 min 0 min 29,7 km/h (5 Bft)
27.03.2012 16:52 22,8 C 18,7 C 2,2 UV-I 3,2 C 43 % 52 % 91 % 1037,0 hPa 0,0 l/m 14,9 km/h (3 Bft) 2 min 0 min 13,3 km/h (3 Bft)
27.03.2012 16:54 22,8 C 18,9 C 2,1 UV-I 3,0 C 43 % 53 % 86 % 1037,0 hPa 0,0 l/m 14,5 km/h (3 Bft) 2 min 0 min 20,5 km/h (4 Bft)
27.03.2012 16:56 22,8 C 18,8 C 2,1 UV-I 3,4 C 43 % 52 % 97 % 1037,0 hPa 0,0 l/m 12,8 km/h (3 Bft) 2 min 0 min 12,8 km/h (3 Bft)
27.03.2012 16:58 22,8 C 18,8 C 2,1 UV-I 3,6 C 43 % 52 % 100 % 1037,0 hPa 0,0 l/m 12,0 km/h (2 Bft) 2 min 0 min 15,3 km/h (3 Bft)
27.03.2012 17:00 22,8 C 18,9 C 1,9 UV-I 3,5 C 43 % 53 % 100 % 1037,0 hPa 0,0 l/m 12,0 km/h (2 Bft) 2 min 0 min 22,1 km/h (4 Bft)
27.03.2012 17:02 22,8 C 18,9 C 1,9 UV-I 3,4 C 43 % 52 % 97 % 1037,0 hPa 0,0 l/m 10,8 km/h (2 Bft) 2 min 0 min 28,9 km/h (5 Bft)
27.03.2012 17:04 22,8 C 18,8 C 1,9 UV-I 3,5 C 43 % 52 % 100 % 1037,0 hPa 0,0 l/m 11,6 km/h (2 Bft) 2 min 0 min 20,1 km/h (4 Bft)
27.03.2012 17:06 22,8 C 18,8 C 1,9 UV-I 3,4 C 43 % 52 % 97 % 1036,8 hPa 0,0 l/m 12,0 km/h (2 Bft) 2 min 0 min 10,4 km/h (2 Bft)
27.03.2012 17:08 22,9 C 18,7 C 1,9 UV-I 3,5 C 43 % 52 % 100 % 1036,8 hPa 0,0 l/m 12,0 km/h (2 Bft) 2 min 0 min 14,1 km/h (3 Bft)
27.03.2012 17:10 22,9 C 18,7 C 1,7 UV-I 3,6 C 43 % 52 % 100 % 1036,8 hPa 0,0 l/m 12,8 km/h (3 Bft) 2 min 0 min 20,5 km/h (4 Bft)
27.03.2012 17:12 22,9 C 18,6 C 1,7 UV-I 3,6 C 43 % 52 % 100 % 1036,8 hPa 0,0 l/m 13,3 km/h (3 Bft) 2 min 0 min 15,3 km/h (3 Bft)
27.03.2012 17:14 22,9 C 18,7 C 1,3 UV-I 3,2 C 43 % 53 % 91 % 1036,8 hPa 0,0 l/m 13,3 km/h (3 Bft) 2 min 0 min 18,1 km/h (3 Bft)
27.03.2012 17:16 22,9 C 18,6 C 1,3 UV-I 3,0 C 43 % 52 % 86 % 1036,8 hPa 0,0 l/m 12,8 km/h (3 Bft) 2 min 0 min 11,2 km/h (2 Bft)
27.03.2012 17:18 22,9 C 18,6 C 1,3 UV-I 2,8 C 43 % 53 % 80 % 1036,8 hPa 0,0 l/m 14,1 km/h (3 Bft) 0 min 0 min 19,7 km/h (3 Bft)
27.03.2012 17:20 22,9 C 18,7 C 1,3 UV-I 2,5 C 43 % 53 % 71 % 1036,8 hPa 0,0 l/m 14,9 km/h (3 Bft) 0 min 0 min 21,3 km/h (4 Bft)
27.03.2012 17:22 22,9 C 18,6 C 1,3 UV-I 2,5 C 43 % 53 % 71 % 1036,8 hPa 0,0 l/m 14,5 km/h (3 Bft) 0 min 0 min 14,9 km/h (3 Bft)
27.03.2012 17:24 22,9 C 18,7 C 1,3 UV-I 2,5 C 43 % 53 % 71 % 1036,8 hPa 0,0 l/m 14,5 km/h (3 Bft) 0 min 0 min 24,9 km/h (4 Bft)
27.03.2012 17:26 22,9 C 18,6 C 1,3 UV-I 2,6 C 43 % 54 % 74 % 1037,6 hPa 0,0 l/m 14,9 km/h (3 Bft) 0 min 0 min 22,5 km/h (4 Bft)
27.03.2012 17:28 22,9 C 18,7 C 1,3 UV-I 2,5 C 43 % 54 % 71 % 1037,6 hPa 0,0 l/m 15,7 km/h (3 Bft) 0 min 0 min 16,5 km/h (3 Bft)
27.03.2012 17:30 22,9 C 18,5 C 1,1 UV-I 2,7 C 43 % 53 % 77 % 1037,6 hPa 0,0 l/m 14,9 km/h (3 Bft) 0 min 0 min 14,1 km/h (3 Bft)
27.03.2012 17:32 22,9 C 18,5 C 1,1 UV-I 2,6 C 43 % 54 % 74 % 1037,6 hPa 0,0 l/m 14,5 km/h (3 Bft) 0 min 0 min 13,7 km/h (3 Bft)
27.03.2012 17:34 22,9 C 18,6 C 1,1 UV-I 2,5 C 43 % 54 % 71 % 1037,6 hPa 0,0 l/m 14,5 km/h (3 Bft) 0 min 0 min 21,7 km/h (4 Bft)
27.03.2012 17:36 22,9 C 18,6 C 1,1 UV-I 2,5 C 43 % 54 % 71 % 1037,6 hPa 0,0 l/m 13,7 km/h (3 Bft) 0 min 0 min 10,4 km/h (2 Bft)
27.03.2012 17:38 22,8 C 18,6 C 1,1 UV-I 2,4 C 43 % 54 % 69 % 1037,6 hPa 0,0 l/m 14,1 km/h (3 Bft) 0 min 0 min 27,7 km/h (4 Bft)
27.03.2012 17:40 22,8 C 18,6 C 1,0 UV-I 2,4 C 43 % 54 % 69 % 1037,6 hPa 0,0 l/m 12,8 km/h (3 Bft) 0 min 0 min 14,1 km/h (3 Bft)
27.03.2012 17:42 22,8 C 18,6 C 1,0 UV-I 2,5 C 43 % 54 % 71 % 1037,6 hPa 0,0 l/m 12,8 km/h (3 Bft) 0 min 0 min 26,1 km/h (4 Bft)
27.03.2012 17:44 22,8 C 18,7 C 1,0 UV-I 2,5 C 43 % 54 % 71 % 1037,6 hPa 0,0 l/m 12,8 km/h (3 Bft) 0 min 0 min 12,8 km/h (3 Bft)
27.03.2012 17:46 22,7 C 18,7 C 1,0 UV-I 2,5 C 43 % 53 % 71 % 1036,7 hPa 0,0 l/m 12,8 km/h (3 Bft) 0 min 0 min 21,3 km/h (4 Bft)
27.03.2012 17:48 22,7 C 18,6 C 1,0 UV-I 2,7 C 43 % 54 % 77 % 1036,7 hPa 0,0 l/m 12,8 km/h (3 Bft) 0 min 0 min 23,3 km/h (4 Bft)
27.03.2012 17:50 22,7 C 18,7 C 0,9 UV-I 2,7 C 42 % 53 % 77 % 1036,7 hPa 0,0 l/m 11,2 km/h (2 Bft) 0 min 0 min 7,6 km/h (2 Bft)
27.03.2012 17:52 22,7 C 18,7 C 0,9 UV-I 2,9 C 42 % 52 % 83 % 1036,7 hPa 0,0 l/m 10,8 km/h (2 Bft) 2 min 0 min 16,1 km/h (3 Bft)
27.03.2012 17:54 22,7 C 18,7 C 0,9 UV-I 3,0 C 42 % 53 % 86 % 1036,7 hPa 0,0 l/m 11,2 km/h (2 Bft) 2 min 0 min 17,7 km/h (3 Bft)
27.03.2012 17:56 22,6 C 18,7 C 0,9 UV-I 2,9 C 43 % 53 % 83 % 1036,7 hPa 0,0 l/m 11,2 km/h (2 Bft) 2 min 0 min 18,5 km/h (3 Bft)
27.03.2012 17:58 22,6 C 18,7 C 0,9 UV-I 2,9 C 43 % 53 % 83 % 1036,7 hPa 0,0 l/m 10,8 km/h (2 Bft) 2 min 0 min 10,4 km/h (2 Bft)
27.03.2012 18:00 22,6 C 18,7 C 0,7 UV-I 2,9 C 43 % 53 % 83 % 1036,7 hPa 0,0 l/m 10,8 km/h (2 Bft) 2 min 0 min 15,7 km/h (3 Bft)
27.03.2012 18:02 22,6 C 18,7 C 0,7 UV-I 2,8 C 43 % 53 % 80 % 1036,7 hPa 0,0 l/m 11,6 km/h (2 Bft) 2 min 0 min 12,8 km/h (3 Bft)
27.03.2012 18:04 22,6 C 18,7 C 0,7 UV-I 2,7 C 43 % 54 % 77 % 1036,7 hPa 0,0 l/m 11,6 km/h (2 Bft) 2 min 0 min 22,1 km/h (4 Bft)
27.03.2012 18:06 22,5 C 18,5 C 0,7 UV-I 2,9 C 43 % 54 % 83 % 1035,9 hPa 0,0 l/m 11,2 km/h (2 Bft) 2 min 0 min 15,3 km/h (3 Bft)
27.03.2012 18:08 22,5 C 18,7 C 0,7 UV-I 2,6 C 43 % 54 % 74 % 1035,9 hPa 0,0 l/m 11,2 km/h (2 Bft) 2 min 0 min 19,7 km/h (3 Bft)
27.03.2012 18:10 22,5 C 18,6 C 0,6 UV-I 2,6 C 43 % 54 % 74 % 1035,9 hPa 0,0 l/m 11,2 km/h (2 Bft) 2 min 0 min 12,4 km/h (3 Bft)
27.03.2012 18:12 22,4 C 18,6 C 0,6 UV-I 2,6 C 43 % 54 % 74 % 1035,9 hPa 0,0 l/m 11,2 km/h (2 Bft) 2 min 0 min 14,1 km/h (3 Bft)
27.03.2012 18:14 22,4 C 18,6 C 0,5 UV-I 2,6 C 43 % 55 % 74 % 1035,9 hPa 0,0 l/m 11,2 km/h (2 Bft) 2 min 0 min 13,3 km/h (3 Bft)
27.03.2012 18:16 22,4 C 18,5 C 0,5 UV-I 2,7 C 43 % 55 % 77 % 1035,9 hPa 0,0 l/m 10,8 km/h (2 Bft) 2 min 0 min 15,3 km/h (3 Bft)
27.03.2012 18:18 22,4 C 18,6 C 0,5 UV-I 2,5 C 43 % 55 % 71 % 1035,9 hPa 0,0 l/m 11,2 km/h (2 Bft) 2 min 0 min 12,0 km/h (2 Bft)
27.03.2012 18:20 22,4 C 18,5 C 0,5 UV-I 2,5 C 43 % 55 % 71 % 1035,9 hPa 0,0 l/m 11,2 km/h (2 Bft) 2 min 0 min 16,9 km/h (3 Bft)
27.03.2012 18:22 22,2 C 18,5 C 0,5 UV-I 2,5 C 43 % 55 % 71 % 1035,9 hPa 0,0 l/m 11,6 km/h (2 Bft) 2 min 0 min 19,3 km/h (3 Bft)
27.03.2012 18:24 22,2 C 18,4 C 0,4 UV-I 2,5 C 44 % 55 % 71 % 1035,9 hPa 0,0 l/m 11,2 km/h (2 Bft) 2 min 0 min 11,6 km/h (2 Bft)
27.03.2012 18:26 22,3 C 18,4 C 0,4 UV-I 2,3 C 44 % 55 % 66 % 1035,4 hPa 0,0 l/m 11,2 km/h (2 Bft) 2 min 0 min 12,0 km/h (2 Bft)
27.03.2012 18:28 22,2 C 18,3 C 0,4 UV-I 2,2 C 44 % 55 % 63 % 1035,4 hPa 0,0 l/m 11,2 km/h (2 Bft) 2 min 0 min 12,8 km/h (3 Bft)
27.03.2012 18:30 22,2 C 18,3 C 0,3 UV-I 2,0 C 44 % 55 % 57 % 1035,4 hPa 0,0 l/m 11,2 km/h (2 Bft) 2 min 0 min 16,5 km/h (3 Bft)
27.03.2012 18:32 22,2 C 18,3 C 0,3 UV-I 1,9 C 44 % 55 % 54 % 1035,4 hPa 0,0 l/m 11,2 km/h (2 Bft) 0 min 0 min 9,2 km/h (2 Bft)
27.03.2012 18:34 22,2 C 18,3 C 0,2 UV-I 1,6 C 43 % 55 % 46 % 1035,4 hPa 0,0 l/m 11,6 km/h (2 Bft) 0 min 0 min 17,7 km/h (3 Bft)
27.03.2012 18:36 22,1 C 18,1 C 0,2 UV-I 1,6 C 43 % 56 % 46 % 1035,4 hPa 0,0 l/m 12,0 km/h (2 Bft) 0 min 0 min 11,2 km/h (2 Bft)
27.03.2012 18:38 22,1 C 18,1 C 0,2 UV-I 1,5 C 43 % 56 % 43 % 1035,4 hPa 0,0 l/m 12,0 km/h (2 Bft) 0 min 0 min 8,4 km/h (2 Bft)
27.03.2012 18:40 22,1 C 18,1 C 0,2 UV-I 1,3 C 43 % 56 % 37 % 1035,4 hPa 0,0 l/m 11,2 km/h (2 Bft) 0 min 0 min 10,4 km/h (2 Bft)
27.03.2012 18:42 22,0 C 18,0 C 0,2 UV-I 1,2 C 43 % 56 % 34 % 1035,4 hPa 0,0 l/m 10,4 km/h (2 Bft) 0 min 0 min 10,4 km/h (2 Bft)
27.03.2012 18:44 22,0 C 18,1 C 0,1 UV-I 0,9 C 44 % 57 % 26 % 1035,4 hPa 0,0 l/m 9,6 km/h (2 Bft) 0 min 0 min 10,8 km/h (2 Bft)
27.03.2012 18:46 22,0 C 17,9 C 0,1 UV-I 1,1 C 44 % 57 % 31 % 1035,5 hPa 0,0 l/m 9,2 km/h (2 Bft) 0 min 0 min 13,3 km/h (3 Bft)
27.03.2012 18:48 22,0 C 18,0 C 0,1 UV-I 0,8 C 44 % 57 % 23 % 1035,5 hPa 0,0 l/m 10,0 km/h (2 Bft) 0 min 0 min 20,1 km/h (4 Bft)
27.03.2012 18:50 22,0 C 17,8 C 0,1 UV-I 0,8 C 44 % 57 % 23 % 1035,5 hPa 0,0 l/m 10,8 km/h (2 Bft) 0 min 0 min 14,5 km/h (3 Bft)
27.03.2012 18:52 22,0 C 17,9 C 0,1 UV-I 0,6 C 44 % 57 % 17 % 1035,5 hPa 0,0 l/m 11,6 km/h (2 Bft) 0 min 0 min 13,3 km/h (3 Bft)
27.03.2012 18:54 22,0 C 17,9 C 0,1 UV-I 0,5 C 44 % 57 % 14 % 1035,5 hPa 0,0 l/m 12,0 km/h (2 Bft) 0 min 0 min 14,9 km/h (3 Bft)
27.03.2012 18:56 21,9 C 17,7 C 0,1 UV-I 0,6 C 44 % 58 % 17 % 1035,5 hPa 0,0 l/m 12,8 km/h (3 Bft) 0 min 0 min 14,9 km/h (3 Bft)
27.03.2012 18:58 21,9 C 17,6 C 0,1 UV-I 0,6 C 44 % 58 % 17 % 1035,5 hPa 0,0 l/m 13,3 km/h (3 Bft) 0 min 0 min 14,5 km/h (3 Bft)
27.03.2012 19:00 21,8 C 17,6 C 0,0 UV-I 0,4 C 44 % 58 % 11 % 1035,5 hPa 0,0 l/m 12,0 km/h (2 Bft) 0 min 0 min 10,0 km/h (2 Bft)
27.03.2012 19:02 21,8 C 17,5 C 0,0 UV-I 0,3 C 44 % 58 % 9 % 1035,5 hPa 0,0 l/m 11,2 km/h (2 Bft) 0 min 0 min 10,0 km/h (2 Bft)
27.03.2012 19:04 21,8 C 17,5 C 0,0 UV-I 0,1 C 44 % 59 % 3 % 1035,5 hPa 0,0 l/m 11,2 km/h (2 Bft) 0 min 0 min 16,1 km/h (3 Bft)
27.03.2012 19:06 21,8 C 17,4 C 0,0 UV-I 0,1 C 44 % 59 % 3 % 1035,2 hPa 0,0 l/m 10,8 km/h (2 Bft) 0 min 0 min 9,2 km/h (2 Bft)
27.03.2012 19:08 21,8 C 17,3 C 0,0 UV-I 0,0 C 44 % 60 % 0 % 1035,2 hPa 0,0 l/m 10,0 km/h (2 Bft) 0 min 0 min 10,8 km/h (2 Bft)
27.03.2012 19:10 21,7 C 17,2 C 0,0 UV-I 0,0 C 44 % 60 % 0 % 1035,2 hPa 0,0 l/m 9,6 km/h (2 Bft) 0 min 0 min 9,2 km/h (2 Bft)
27.03.2012 19:12 21,8 C 17,2 C 0,0 UV-I 0,0 C 44 % 60 % 0 % 1035,2 hPa 0,0 l/m 9,6 km/h (2 Bft) 0 min 0 min 14,5 km/h (3 Bft)
27.03.2012 19:14 21,7 C 17,1 C 0,0 UV-I 0,0 C 44 % 60 % 0 % 1035,2 hPa 0,0 l/m 9,2 km/h (2 Bft) 0 min 0 min 8,4 km/h (2 Bft)
27.03.2012 19:16 21,7 C 17,1 C 0,0 UV-I 0,0 C 44 % 61 % 0 % 1035,2 hPa 0,0 l/m 9,2 km/h (2 Bft) 0 min 0 min 10,4 km/h (2 Bft)
27.03.2012 19:18 21,7 C 17,1 C 0,0 UV-I 0,0 C 44 % 60 % 0 % 1035,2 hPa 0,0 l/m 9,2 km/h (2 Bft) 0 min 0 min 10,4 km/h (2 Bft)
27.03.2012 19:20 21,6 C 17,1 C 0,0 UV-I 0,0 C 44 % 61 % 0 % 1035,2 hPa 0,0 l/m 10,0 km/h (2 Bft) 0 min 0 min 16,5 km/h (3 Bft)
27.03.2012 19:22 21,6 C 16,9 C 0,0 UV-I 0,0 C 44 % 61 % 0 % 1035,2 hPa 0,0 l/m 10,0 km/h (2 Bft) 0 min 0 min 11,2 km/h (2 Bft)
27.03.2012 19:24 21,6 C 16,9 C 0,0 UV-I 0,0 C 44 % 61 % 0 % 1035,2 hPa 0,0 l/m 10,0 km/h (2 Bft) 0 min 0 min 13,3 km/h (3 Bft)
27.03.2012 19:26 21,6 C 16,8 C 0,0 UV-I 0,0 C 44 % 61 % 0 % 1035,1 hPa 0,0 l/m 10,4 km/h (2 Bft) 0 min 0 min 12,8 km/h (3 Bft)
27.03.2012 19:28 21,6 C 16,8 C 0,0 UV-I 0,0 C 44 % 61 % 0 % 1035,1 hPa 0,0 l/m 10,4 km/h (2 Bft) 0 min 0 min 9,6 km/h (2 Bft)
27.03.2012 19:30 21,5 C 16,8 C 0,0 UV-I 0,0 C 44 % 62 % 0 % 1035,1 hPa 0,0 l/m 10,4 km/h (2 Bft) 0 min 0 min 9,2 km/h (2 Bft)
27.03.2012 19:32 21,5 C 16,7 C 0,0 UV-I 0,0 C 44 % 62 % 0 % 1035,1 hPa 0,0 l/m 9,6 km/h (2 Bft) 0 min 0 min 8,8 km/h (2 Bft)
27.03.2012 19:34 21,4 C 16,7 C 0,0 UV-I 0,0 C 44 % 62 % 0 % 1035,1 hPa 0,0 l/m 9,2 km/h (2 Bft) 0 min 0 min 8,8 km/h (2 Bft)
27.03.2012 19:36 21,4 C 16,6 C 0,0 UV-I 0,0 C 44 % 62 % 0 % 1035,1 hPa 0,0 l/m 8,8 km/h (2 Bft) 0 min 0 min 11,6 km/h (2 Bft)
27.03.2012 19:38 21,4 C 16,6 C 0,0 UV-I 0,0 C 44 % 62 % 0 % 1035,1 hPa 0,0 l/m 7,6 km/h (2 Bft) 0 min 0 min 9,6 km/h (2 Bft)
27.03.2012 19:40 21,4 C 16,7 C 0,0 UV-I 0,0 C 44 % 62 % 0 % 1035,1 hPa 0,0 l/m 7,6 km/h (2 Bft) 0 min 0 min 10,0 km/h (2 Bft)
27.03.2012 19:42 21,2 C 16,5 C 0,0 UV-I 0,0 C 44 % 63 % 0 % 1035,1 hPa 0,0 l/m 7,2 km/h (2 Bft) 0 min 0 min 10,4 km/h (2 Bft)
27.03.2012 19:44 21,2 C 16,5 C 0,0 UV-I 0,0 C 44 % 63 % 0 % 1035,1 hPa 0,0 l/m 6,8 km/h (2 Bft) 0 min 0 min 4,4 km/h (1 Bft)
27.03.2012 19:46 21,3 C 16,4 C 0,0 UV-I 0,0 C 45 % 63 % 0 % 1034,9 hPa 0,0 l/m 7,2 km/h (2 Bft) 0 min 0 min 9,2 km/h (2 Bft)
27.03.2012 19:48 21,2 C 16,4 C 0,0 UV-I 0,0 C 45 % 63 % 0 % 1034,9 hPa 0,0 l/m 6,8 km/h (2 Bft) 0 min 0 min 5,2 km/h (1 Bft)
27.03.2012 19:50 21,2 C 16,4 C 0,0 UV-I 0,0 C 45 % 63 % 0 % 1034,9 hPa 0,0 l/m 6,8 km/h (2 Bft) 0 min 0 min 8,8 km/h (2 Bft)
27.03.2012 19:52 21,2 C 16,4 C 0,0 UV-I 0,0 C 45 % 63 % 0 % 1034,9 hPa 0,0 l/m 6,8 km/h (2 Bft) 0 min 0 min 7,6 km/h (2 Bft)
27.03.2012 19:54 21,2 C 16,3 C 0,0 UV-I 0,0 C 45 % 63 % 0 % 1034,9 hPa 0,0 l/m 6,4 km/h (2 Bft) 0 min 0 min 8,0 km/h (2 Bft)
27.03.2012 19:56 21,1 C 16,2 C 0,0 UV-I 0,0 C 45 % 64 % 0 % 1034,9 hPa 0,0 l/m 5,6 km/h (1 Bft) 0 min 0 min 4,0 km/h (1 Bft)
27.03.2012 19:58 21,1 C 16,3 C 0,0 UV-I 0,0 C 45 % 64 % 0 % 1034,9 hPa 0,0 l/m 4,8 km/h (1 Bft) 0 min 0 min 4,4 km/h (1 Bft)
27.03.2012 20:00 21,1 C 16,1 C 0,0 UV-I 0,0 C 45 % 64 % 0 % 1034,9 hPa 0,0 l/m 5,2 km/h (1 Bft) 0 min 0 min 6,0 km/h (2 Bft)
27.03.2012 20:02 21,0 C 16,0 C 0,0 UV-I 0,0 C 45 % 65 % 0 % 1034,9 hPa 0,0 l/m 4,8 km/h (1 Bft) 0 min 0 min 4,4 km/h (1 Bft)
27.03.2012 20:04 21,0 C 16,0 C 0,0 UV-I 0,0 C 45 % 65 % 0 % 1034,9 hPa 0,0 l/m 4,4 km/h (1 Bft) 0 min 0 min 4,4 km/h (1 Bft)
27.03.2012 20:06 21,0 C 15,9 C 0,0 UV-I 0,0 C 45 % 65 % 0 % 1035,2 hPa 0,0 l/m 4,8 km/h (1 Bft) 0 min 0 min 9,6 km/h (2 Bft)
27.03.2012 20:08 20,9 C 15,9 C 0,0 UV-I 0,0 C 45 % 65 % 0 % 1035,2 hPa 0,0 l/m 5,6 km/h (1 Bft) 0 min 0 min 5,6 km/h (1 Bft)
27.03.2012 20:10 20,9 C 15,9 C 0,0 UV-I 0,0 C 45 % 65 % 0 % 1035,2 hPa 0,0 l/m 5,6 km/h (1 Bft) 0 min 0 min 7,6 km/h (2 Bft)
27.03.2012 20:12 20,9 C 15,8 C 0,0 UV-I 0,0 C 45 % 65 % 0 % 1035,2 hPa 0,0 l/m 6,0 km/h (2 Bft) 0 min 0 min 12,0 km/h (2 Bft)
27.03.2012 20:14 20,9 C 15,7 C 0,0 UV-I 0,0 C 46 % 65 % 0 % 1035,2 hPa 0,0 l/m 6,4 km/h (2 Bft) 0 min 0 min 8,0 km/h (2 Bft)
27.03.2012 20:16 20,8 C 15,6 C 0,0 UV-I 0,0 C 46 % 66 % 0 % 1035,2 hPa 0,0 l/m 6,8 km/h (2 Bft) 0 min 0 min 6,4 km/h (2 Bft)
27.03.2012 20:18 20,8 C 15,7 C 0,0 UV-I 0,0 C 46 % 66 % 0 % 1035,2 hPa 0,0 l/m 6,4 km/h (2 Bft) 0 min 0 min 5,6 km/h (1 Bft)
27.03.2012 20:20 20,8 C 15,6 C 0,0 UV-I 0,0 C 46 % 66 % 0 % 1035,2 hPa 0,0 l/m 6,4 km/h (2 Bft) 0 min 0 min 7,2 km/h (2 Bft)
27.03.2012 20:22 20,8 C 15,5 C 0,0 UV-I 0,0 C 46 % 66 % 0 % 1035,2 hPa 0,0 l/m 6,8 km/h (2 Bft) 0 min 0 min 15,3 km/h (3 Bft)
27.03.2012 20:24 20,7 C 15,5 C 0,0 UV-I 0,0 C 46 % 66 % 0 % 1035,2 hPa 0,0 l/m 6,8 km/h (2 Bft) 0 min 0 min 6,4 km/h (2 Bft)
27.03.2012 20:26 20,7 C 15,4 C 0,0 UV-I 0,0 C 46 % 67 % 0 % 1034,8 hPa 0,0 l/m 6,4 km/h (2 Bft) 0 min 0 min 7,2 km/h (2 Bft)
27.03.2012 20:28 20,7 C 15,5 C 0,0 UV-I 0,0 C 46 % 67 % 0 % 1034,8 hPa 0,0 l/m 6,0 km/h (2 Bft) 0 min 0 min 4,8 km/h (1 Bft)
27.03.2012 20:30 20,7 C 15,4 C 0,0 UV-I 0,0 C 46 % 67 % 0 % 1034,8 hPa 0,0 l/m 6,0 km/h (2 Bft) 0 min 0 min 9,2 km/h (2 Bft)
27.03.2012 20:32 20,6 C 15,4 C 0,0 UV-I 0,0 C 46 % 67 % 0 % 1034,8 hPa 0,0 l/m 5,6 km/h (1 Bft) 0 min 0 min 6,4 km/h (2 Bft)
27.03.2012 20:34 20,6 C 15,3 C 0,0 UV-I 0,0 C 46 % 67 % 0 % 1034,8 hPa 0,0 l/m 5,2 km/h (1 Bft) 0 min 0 min 4,4 km/h (1 Bft)
27.03.2012 20:36 20,6 C 15,3 C 0,0 UV-I 0,0 C 46 % 67 % 0 % 1034,8 hPa 0,0 l/m 5,2 km/h (1 Bft) 0 min 0 min 7,6 km/h (2 Bft)
27.03.2012 20:38 20,6 C 15,2 C 0,0 UV-I 0,0 C 46 % 68 % 0 % 1034,8 hPa 0,0 l/m 5,2 km/h (1 Bft) 0 min 0 min 6,0 km/h (2 Bft)
27.03.2012 20:40 20,6 C 15,3 C 0,0 UV-I 0,0 C 46 % 68 % 0 % 1034,8 hPa 0,0 l/m 5,2 km/h (1 Bft) 0 min 0 min 0,0 km/h (0 Bft)
27.03.2012 20:42 20,5 C 15,2 C 0,0 UV-I 0,0 C 46 % 68 % 0 % 1034,8 hPa 0,0 l/m 5,2 km/h (1 Bft) 0 min 0 min 8,4 km/h (2 Bft)
27.03.2012 20:44 20,5 C 15,1 C 0,0 UV-I 0,0 C 46 % 68 % 0 % 1034,8 hPa 0,0 l/m 5,2 km/h (1 Bft) 0 min 0 min 5,2 km/h (1 Bft)
27.03.2012 20:46 20,5 C 15,1 C 0,0 UV-I 0,0 C 47 % 69 % 0 % 1034,9 hPa 0,0 l/m 5,6 km/h (1 Bft) 0 min 0 min 8,8 km/h (2 Bft)
27.03.2012 20:48 20,5 C 15,0 C 0,0 UV-I 0,0 C 47 % 69 % 0 % 1034,9 hPa 0,0 l/m 5,6 km/h (1 Bft) 0 min 0 min 7,6 km/h (2 Bft)
27.03.2012 20:50 20,4 C 15,0 C 0,0 UV-I 0,0 C 47 % 69 % 0 % 1034,9 hPa 0,0 l/m 5,2 km/h (1 Bft) 0 min 0 min 6,8 km/h (2 Bft)
27.03.2012 20:52 20,4 C 15,1 C 0,0 UV-I 0,0 C 47 % 69 % 0 % 1034,9 hPa 0,0 l/m 5,6 km/h (1 Bft) 0 min 0 min 8,4 km/h (2 Bft)
27.03.2012 20:54 20,4 C 14,9 C 0,0 UV-I 0,0 C 47 % 69 % 0 % 1034,9 hPa 0,0 l/m 5,2 km/h (1 Bft) 0 min 0 min 6,0 km/h (2 Bft)
27.03.2012 20:56 20,4 C 14,9 C 0,0 UV-I 0,0 C 47 % 69 % 0 % 1034,9 hPa 0,0 l/m 4,8 km/h (1 Bft) 0 min 0 min 6,8 km/h (2 Bft)
27.03.2012 20:58 20,4 C 14,8 C 0,0 UV-I 0,0 C 47 % 69 % 0 % 1034,9 hPa 0,0 l/m 3,6 km/h (1 Bft) 0 min 0 min 0,0 km/h (0 Bft)
27.03.2012 21:00 20,4 C 14,9 C 0,0 UV-I 0,0 C 47 % 69 % 0 % 1034,9 hPa 0,0 l/m 2,4 km/h (1 Bft) 0 min 0 min 0,0 km/h (0 Bft)
27.03.2012 21:02 20,4 C 14,7 C 0,0 UV-I 0,0 C 47 % 69 % 0 % 1034,9 hPa 0,0 l/m 1,6 km/h (1 Bft) 0 min 0 min 0,0 km/h (0 Bft)
27.03.2012 21:04 20,2 C 14,6 C 0,0 UV-I 0,0 C 47 % 69 % 0 % 1034,9 hPa 0,0 l/m 0,8 km/h (0 Bft) 0 min 0 min 0,0 km/h (0 Bft)
27.03.2012 21:06 20,2 C 14,6 C 0,0 UV-I 0,0 C 47 % 69 % 0 % 1034,8 hPa 0,0 l/m 0,4 km/h (0 Bft) 0 min 0 min 6,8 km/h (2 Bft)
27.03.2012 21:08 20,3 C 14,5 C 0,0 UV-I 0,0 C 47 % 70 % 0 % 1034,8 hPa 0,0 l/m 0,4 km/h (0 Bft) 0 min 0 min 0,0 km/h (0 Bft)
27.03.2012 21:10 20,3 C 14,5 C 0,0 UV-I 0,0 C 47 % 70 % 0 % 1034,8 hPa 0,0 l/m 0,8 km/h (0 Bft) 0 min 0 min 6,4 km/h (2 Bft)
27.03.2012 21:12 20,2 C 14,4 C 0,0 UV-I 0,0 C 47 % 70 % 0 % 1034,8 hPa 0,0 l/m 0,8 km/h (0 Bft) 0 min 0 min 0,0 km/h (0 Bft)
27.03.2012 21:14 20,2 C 14,5 C 0,0 UV-I 0,0 C 47 % 70 % 0 % 1034,8 hPa 0,0 l/m 0,8 km/h (0 Bft) 0 min 0 min 0,0 km/h (0 Bft)
27.03.2012 21:16 20,2 C 14,3 C 0,0 UV-I 0,0 C 48 % 70 % 0 % 1034,8 hPa 0,0 l/m 0,8 km/h (0 Bft) 0 min 0 min 0,0 km/h (0 Bft)
27.03.2012 21:18 20,2 C 14,2 C 0,0 UV-I 0,0 C 48 % 70 % 0 % 1034,8 hPa 0,0 l/m 0,8 km/h (0 Bft) 0 min 0 min 0,0 km/h (0 Bft)
27.03.2012 21:20 20,2 C 14,3 C 0,0 UV-I 0,0 C 48 % 70 % 0 % 1034,8 hPa 0,0 l/m 0,4 km/h (0 Bft) 0 min 0 min 0,0 km/h (0 Bft)
27.03.2012 21:22 20,1 C 14,1 C 0,0 UV-I 0,0 C 48 % 70 % 0 % 1034,8 hPa 0,0 l/m 0,4 km/h (0 Bft) 0 min 0 min 0,0 km/h (0 Bft)
27.03.2012 21:24 20,1 C 14,0 C 0,0 UV-I 0,0 C 48 % 71 % 0 % 1034,8 hPa 0,0 l/m 0,0 km/h (0 Bft) 0 min 0 min 0,0 km/h (0 Bft)
27.03.2012 21:26 20,1 C 14,0 C 0,0 UV-I 0,0 C 48 % 71 % 0 % 1034,9 hPa 0,0 l/m 0,0 km/h (0 Bft) 0 min 0 min 0,0 km/h (0 Bft)
27.03.2012 21:28 20,1 C 13,9 C 0,0 UV-I 0,0 C 48 % 71 % 0 % 1034,9 hPa 0,0 l/m 0,0 km/h (0 Bft) 0 min 0 min 0,0 km/h (0 Bft)
27.03.2012 21:30 20,0 C 13,9 C 0,0 UV-I 0,0 C 48 % 72 % 0 % 1034,9 hPa 0,0 l/m 0,4 km/h (0 Bft) 0 min 0 min 4,4 km/h (1 Bft)
27.03.2012 21:32 20,0 C 13,7 C 0,0 UV-I 0,0 C 48 % 72 % 0 % 1034,9 hPa 0,0 l/m 0,4 km/h (0 Bft) 0 min 0 min 0,0 km/h (0 Bft)
27.03.2012 21:34 20,0 C 13,7 C 0,0 UV-I 0,0 C 48 % 72 % 0 % 1034,9 hPa 0,0 l/m 0,8 km/h (0 Bft) 0 min 0 min 6,4 km/h (2 Bft)
27.03.2012 21:36 20,0 C 13,7 C 0,0 UV-I 0,0 C 48 % 72 % 0 % 1034,9 hPa 0,0 l/m 1,2 km/h (1 Bft) 0 min 0 min 0,0 km/h (0 Bft)
27.03.2012 21:38 20,0 C 13,6 C 0,0 UV-I 0,0 C 48 % 73 % 0 % 1034,9 hPa 0,0 l/m 1,2 km/h (1 Bft) 0 min 0 min 0,0 km/h (0 Bft)
27.03.2012 21:40 20,0 C 13,7 C 0,0 UV-I 0,0 C 48 % 73 % 0 % 1034,9 hPa 0,0 l/m 1,6 km/h (1 Bft) 0 min 0 min 4,0 km/h (1 Bft)
27.03.2012 21:42 20,0 C 13,7 C 0,0 UV-I 0,0 C 48 % 73 % 0 % 1034,9 hPa 0,0 l/m 1,2 km/h (1 Bft) 0 min 0 min 0,0 km/h (0 Bft)
27.03.2012 21:44 20,0 C 13,6 C 0,0 UV-I 0,0 C 48 % 73 % 0 % 1034,9 hPa 0,0 l/m 1,2 km/h (1 Bft) 0 min 0 min 0,0 km/h (0 Bft)
27.03.2012 21:46 20,0 C 13,5 C 0,0 UV-I 0,0 C 48 % 73 % 0 % 1034,9 hPa 0,0 l/m 0,8 km/h (0 Bft) 0 min 0 min 0,0 km/h (0 Bft)
27.03.2012 21:48 20,0 C 13,5 C 0,0 UV-I 0,0 C 48 % 73 % 0 % 1034,9 hPa 0,0 l/m 0,4 km/h (0 Bft) 0 min 0 min 0,0 km/h (0 Bft)
27.03.2012 21:50 20,0 C 13,5 C 0,0 UV-I 0,0 C 48 % 73 % 0 % 1034,9 hPa 0,0 l/m 0,4 km/h (0 Bft) 0 min 0 min 0,0 km/h (0 Bft)
27.03.2012 21:52 20,0 C 13,5 C 0,0 UV-I 0,0 C 48 % 74 % 0 % 1034,9 hPa 0,0 l/m 0,0 km/h (0 Bft) 0 min 0 min 0,0 km/h (0 Bft)
27.03.2012 21:54 20,0 C 13,3 C 0,0 UV-I 0,0 C 48 % 74 % 0 % 1034,9 hPa 0,0 l/m 0,4 km/h (0 Bft) 0 min 0 min 4,0 km/h (1 Bft)
27.03.2012 21:56 20,0 C 13,3 C 0,0 UV-I 0,0 C 48 % 74 % 0 % 1034,9 hPa 0,0 l/m 0,4 km/h (0 Bft) 0 min 0 min 0,0 km/h (0 Bft)
27.03.2012 21:58 20,0 C 13,2 C 0,0 UV-I 0,0 C 48 % 74 % 0 % 1034,9 hPa 0,0 l/m 0,4 km/h (0 Bft) 0 min 0 min 0,0 km/h (0 Bft)
27.03.2012 22:00 20,0 C 13,3 C 0,0 UV-I 0,0 C 48 % 74 % 0 % 1034,9 hPa 0,0 l/m 0,4 km/h (0 Bft) 0 min 0 min 5,2 km/h (1 Bft)
27.03.2012 22:02 19,9 C 13,2 C 0,0 UV-I 0,0 C 49 % 74 % 0 % 1034,9 hPa 0,0 l/m 0,4 km/h (0 Bft) 0 min 0 min 0,0 km/h (0 Bft)
27.03.2012 22:04 19,9 C 13,1 C 0,0 UV-I 0,0 C 49 % 74 % 0 % 1034,9 hPa 0,0 l/m 0,4 km/h (0 Bft) 0 min 0 min 0,0 km/h (0 Bft)
27.03.2012 22:06 19,9 C 13,1 C 0,0 UV-I 0,0 C 49 % 74 % 0 % 1035,1 hPa 0,0 l/m 0,4 km/h (0 Bft) 0 min 0 min 0,0 km/h (0 Bft)
27.03.2012 22:08 19,9 C 13,1 C 0,0 UV-I 0,0 C 49 % 74 % 0 % 1035,1 hPa 0,0 l/m 0,4 km/h (0 Bft) 0 min 0 min 0,0 km/h (0 Bft)
27.03.2012 22:10 19,9 C 12,9 C 0,0 UV-I 0,0 C 49 % 74 % 0 % 1035,1 hPa 0,0 l/m 0,0 km/h (0 Bft) 0 min 0 min 0,0 km/h (0 Bft)
27.03.2012 22:12 19,8 C 12,9 C 0,0 UV-I 0,0 C 49 % 75 % 0 % 1035,1 hPa 0,0 l/m 0,0 km/h (0 Bft) 0 min 0 min 0,0 km/h (0 Bft)
27.03.2012 22:14 19,8 C 12,8 C 0,0 UV-I 0,0 C 49 % 75 % 0 % 1035,1 hPa 0,0 l/m 0,0 km/h (0 Bft) 0 min 0 min 0,0 km/h (0 Bft)
27.03.2012 22:16 19,8 C 12,9 C 0,0 UV-I 0,0 C 49 % 75 % 0 % 1035,1 hPa 0,0 l/m 0,0 km/h (0 Bft) 0 min 0 min 0,0 km/h (0 Bft)
27.03.2012 22:18 19,8 C 12,8 C 0,0 UV-I 0,0 C 49 % 75 % 0 % 1035,1 hPa 0,0 l/m 0,0 km/h (0 Bft) 0 min 0 min 0,0 km/h (0 Bft)
27.03.2012 22:20 19,8 C 12,8 C 0,0 UV-I 0,0 C 49 % 76 % 0 % 1035,1 hPa 0,0 l/m 0,0 km/h (0 Bft) 0 min 0 min 0,0 km/h (0 Bft)
27.03.2012 22:22 19,8 C 12,7 C 0,0 UV-I 0,0 C 49 % 76 % 0 % 1035,1 hPa 0,0 l/m 0,4 km/h (0 Bft) 0 min 0 min 4,0 km/h (1 Bft)
27.03.2012 22:24 19,8 C 12,7 C 0,0 UV-I 0,0 C 49 % 76 % 0 % 1035,1 hPa 0,0 l/m 0,4 km/h (0 Bft) 0 min 0 min 0,0 km/h (0 Bft)
27.03.2012 22:26 19,8 C 12,7 C 0,0 UV-I 0,0 C 49 % 76 % 0 % 1035,0 hPa 0,0 l/m 0,4 km/h (0 Bft) 0 min 0 min 0,0 km/h (0 Bft)
27.03.2012 22:28 19,8 C 12,7 C 0,0 UV-I 0,0 C 49 % 76 % 0 % 1035,0 hPa 0,0 l/m 0,4 km/h (0 Bft) 0 min 0 min 4,0 km/h (1 Bft)
27.03.2012 22:30 19,8 C 12,6 C 0,0 UV-I 0,0 C 49 % 76 % 0 % 1035,0 hPa 0,0 l/m 0,8 km/h (0 Bft) 0 min 0 min 4,4 km/h (1 Bft)
27.03.2012 22:32 19,8 C 12,7 C 0,0 UV-I 0,0 C 49 % 76 % 0 % 1035,0 hPa 0,0 l/m 0,8 km/h (0 Bft) 0 min 0 min 0,0 km/h (0 Bft)
27.03.2012 22:34 19,7 C 12,7 C 0,0 UV-I 0,0 C 49 % 76 % 0 % 1035,0 hPa 0,0 l/m 1,2 km/h (1 Bft) 0 min 0 min 4,8 km/h (1 Bft)
27.03.2012 22:36 19,7 C 12,7 C 0,0 UV-I 0,0 C 49 % 77 % 0 % 1035,0 hPa 0,0 l/m 1,6 km/h (1 Bft) 0 min 0 min 6,8 km/h (2 Bft)
27.03.2012 22:38 19,7 C 12,7 C 0,0 UV-I 0,0 C 49 % 77 % 0 % 1035,0 hPa 0,0 l/m 2,0 km/h (1 Bft) 0 min 0 min 6,8 km/h (2 Bft)
27.03.2012 22:40 19,7 C 12,6 C 0,0 UV-I 0,0 C 49 % 77 % 0 % 1035,0 hPa 0,0 l/m 2,4 km/h (1 Bft) 0 min 0 min 0,0 km/h (0 Bft)
27.03.2012 22:42 19,7 C 12,6 C 0,0 UV-I 0,0 C 49 % 77 % 0 % 1035,0 hPa 0,0 l/m 2,8 km/h (1 Bft) 0 min 0 min 6,0 km/h (2 Bft)
27.03.2012 22:44 19,6 C 12,7 C 0,0 UV-I 0,0 C 49 % 78 % 0 % 1035,0 hPa 0,0 l/m 3,2 km/h (1 Bft) 0 min 0 min 5,2 km/h (1 Bft)
27.03.2012 22:46 19,6 C 12,7 C 0,0 UV-I 0,0 C 50 % 78 % 0 % 1035,1 hPa 0,0 l/m 3,2 km/h (1 Bft) 0 min 0 min 6,0 km/h (2 Bft)
27.03.2012 22:48 19,6 C 12,6 C 0,0 UV-I 0,0 C 49 % 78 % 0 % 1035,1 hPa 0,0 l/m 3,2 km/h (1 Bft) 0 min 0 min 6,0 km/h (2 Bft)
27.03.2012 22:50 19,6 C 12,6 C 0,0 UV-I 0,0 C 50 % 78 % 0 % 1035,1 hPa 0,0 l/m 3,6 km/h (1 Bft) 0 min 0 min 8,4 km/h (2 Bft)
27.03.2012 22:52 19,6 C 12,7 C 0,0 UV-I 0,0 C 50 % 78 % 0 % 1035,1 hPa 0,0 l/m 4,4 km/h (1 Bft) 0 min 0 min 7,2 km/h (2 Bft)
27.03.2012 22:54 19,6 C 12,6 C 0,0 UV-I 0,0 C 50 % 78 % 0 % 1035,1 hPa 0,0 l/m 4,8 km/h (1 Bft) 0 min 0 min 6,0 km/h (2 Bft)
27.03.2012 22:56 19,5 C 12,5 C 0,0 UV-I 0,0 C 50 % 78 % 0 % 1035,1 hPa 0,0 l/m 5,6 km/h (1 Bft) 0 min 0 min 7,2 km/h (2 Bft)
27.03.2012 22:58 19,5 C 12,5 C 0,0 UV-I 0,0 C 50 % 78 % 0 % 1035,1 hPa 0,0 l/m 6,0 km/h (2 Bft) 0 min 0 min 11,2 km/h (2 Bft)
27.03.2012 23:00 19,5 C 12,4 C 0,0 UV-I 0,0 C 50 % 78 % 0 % 1035,1 hPa 0,0 l/m 6,8 km/h (2 Bft) 0 min 0 min 8,8 km/h (2 Bft)
27.03.2012 23:02 19,5 C 12,4 C 0,0 UV-I 0,0 C 50 % 78 % 0 % 1035,1 hPa 0,0 l/m 6,4 km/h (2 Bft) 0 min 0 min 6,0 km/h (2 Bft)
27.03.2012 23:04 19,5 C 12,5 C 0,0 UV-I 0,0 C 50 % 79 % 0 % 1035,1 hPa 0,0 l/m 6,4 km/h (2 Bft) 0 min 0 min 4,8 km/h (1 Bft)
27.03.2012 23:06 19,4 C 12,4 C 0,0 UV-I 0,0 C 50 % 79 % 0 % 1034,9 hPa 0,0 l/m 5,6 km/h (1 Bft) 0 min 0 min 5,6 km/h (1 Bft)
27.03.2012 23:08 19,4 C 12,4 C 0,0 UV-I 0,0 C 50 % 79 % 0 % 1034,9 hPa 0,0 l/m 4,8 km/h (1 Bft) 0 min 0 min 4,8 km/h (1 Bft)
27.03.2012 23:10 19,4 C 12,4 C 0,0 UV-I 0,0 C 50 % 78 % 0 % 1034,9 hPa 0,0 l/m 3,6 km/h (1 Bft) 0 min 0 min 0,0 km/h (0 Bft)
27.03.2012 23:12 19,4 C 12,3 C 0,0 UV-I 0,0 C 50 % 78 % 0 % 1034,9 hPa 0,0 l/m 2,4 km/h (1 Bft) 0 min 0 min 0,0 km/h (0 Bft)
27.03.2012 23:14 19,4 C 12,3 C 0,0 UV-I 0,0 C 50 % 78 % 0 % 1034,9 hPa 0,0 l/m 1,6 km/h (1 Bft) 0 min 0 min 0,0 km/h (0 Bft)
27.03.2012 23:16 19,4 C 12,2 C 0,0 UV-I 0,0 C 50 % 78 % 0 % 1034,9 hPa 0,0 l/m 1,2 km/h (1 Bft) 0 min 0 min 0,0 km/h (0 Bft)
27.03.2012 23:18 19,4 C 12,1 C 0,0 UV-I 0,0 C 50 % 78 % 0 % 1034,9 hPa 0,0 l/m 0,8 km/h (0 Bft) 0 min 0 min 0,0 km/h (0 Bft)
27.03.2012 23:20 19,4 C 12,0 C 0,0 UV-I 0,0 C 50 % 78 % 0 % 1034,9 hPa 0,0 l/m 0,4 km/h (0 Bft) 0 min 0 min 0,0 km/h (0 Bft)
27.03.2012 23:22 19,4 C 12,0 C 0,0 UV-I 0,0 C 50 % 78 % 0 % 1034,9 hPa 0,0 l/m 0,4 km/h (0 Bft) 0 min 0 min 0,0 km/h (0 Bft)
27.03.2012 23:24 19,4 C 11,9 C 0,0 UV-I 0,0 C 50 % 78 % 0 % 1034,9 hPa 0,0 l/m 0,0 km/h (0 Bft) 0 min 0 min 0,0 km/h (0 Bft)
27.03.2012 23:26 19,4 C 11,9 C 0,0 UV-I 0,0 C 50 % 79 % 0 % 1035,2 hPa 0,0 l/m 0,0 km/h (0 Bft) 0 min 0 min 0,0 km/h (0 Bft)
27.03.2012 23:28 19,4 C 11,8 C 0,0 UV-I 0,0 C 50 % 80 % 0 % 1035,2 hPa 0,0 l/m 0,4 km/h (0 Bft) 0 min 0 min 5,6 km/h (1 Bft)
27.03.2012 23:30 19,2 C 11,9 C 0,0 UV-I 0,0 C 50 % 80 % 0 % 1035,2 hPa 0,0 l/m 0,8 km/h (0 Bft) 0 min 0 min 4,0 km/h (1 Bft)
27.03.2012 23:32 19,2 C 11,9 C 0,0 UV-I 0,0 C 50 % 80 % 0 % 1035,2 hPa 0,0 l/m 1,2 km/h (1 Bft) 0 min 0 min 4,8 km/h (1 Bft)
27.03.2012 23:34 19,2 C 11,7 C 0,0 UV-I 0,0 C 50 % 80 % 0 % 1035,2 hPa 0,0 l/m 1,2 km/h (1 Bft) 0 min 0 min 0,0 km/h (0 Bft)
27.03.2012 23:36 19,2 C 11,7 C 0,0 UV-I 0,0 C 50 % 80 % 0 % 1035,2 hPa 0,0 l/m 1,2 km/h (1 Bft) 0 min 0 min 0,0 km/h (0 Bft)
27.03.2012 23:38 19,2 C 11,7 C 0,0 UV-I 0,0 C 50 % 80 % 0 % 1035,2 hPa 0,0 l/m 1,2 km/h (1 Bft) 0 min 0 min 0,0 km/h (0 Bft)
27.03.2012 23:40 19,3 C 11,7 C 0,0 UV-I 0,0 C 51 % 80 % 0 % 1035,2 hPa 0,0 l/m 1,2 km/h (1 Bft) 0 min 0 min 4,4 km/h (1 Bft)
27.03.2012 23:42 19,3 C 11,7 C 0,0 UV-I 0,0 C 51 % 80 % 0 % 1035,2 hPa 0,0 l/m 1,2 km/h (1 Bft) 0 min 0 min 4,4 km/h (1 Bft)
27.03.2012 23:44 19,2 C 11,7 C 0,0 UV-I 0,0 C 51 % 80 % 0 % 1035,2 hPa 0,0 l/m 2,0 km/h (1 Bft) 0 min 0 min 6,8 km/h (2 Bft)
27.03.2012 23:46 19,2 C 11,7 C 0,0 UV-I 0,0 C 51 % 80 % 0 % 1034,9 hPa 0,0 l/m 2,4 km/h (1 Bft) 0 min 0 min 0,0 km/h (0 Bft)
27.03.2012 23:48 19,2 C 11,7 C 0,0 UV-I 0,0 C 51 % 80 % 0 % 1034,9 hPa 0,0 l/m 3,2 km/h (1 Bft) 0 min 0 min 5,2 km/h (1 Bft)
27.03.2012 23:50 19,2 C 11,7 C 0,0 UV-I 0,0 C 51 % 80 % 0 % 1034,9 hPa 0,0 l/m 3,2 km/h (1 Bft) 0 min 0 min 4,8 km/h (1 Bft)
27.03.2012 23:52 19,2 C 11,6 C 0,0 UV-I 0,0 C 51 % 80 % 0 % 1034,9 hPa 0,0 l/m 2,8 km/h (1 Bft) 0 min 0 min 0,0 km/h (0 Bft)
27.03.2012 23:54 19,2 C 11,7 C 0,0 UV-I 0,0 C 51 % 80 % 0 % 1034,9 hPa 0,0 l/m 2,0 km/h (1 Bft) 0 min 0 min 0,0 km/h (0 Bft)
27.03.2012 23:56 19,2 C 11,6 C 0,0 UV-I 0,0 C 51 % 80 % 0 % 1034,9 hPa 0,0 l/m 1,2 km/h (1 Bft) 0 min 0 min 0,0 km/h (0 Bft)
27.03.2012 23:58 19,2 C 11,5 C 0,0 UV-I 0,0 C 51 % 80 % 0 % 1034,9 hPa 0,0 l/m 1,2 km/h (1 Bft) 0 min 0 min 5,2 km/h (1 Bft)
_ Min-Zeit 07:50 07:36 00:00 00:00 16:26 14:32 00:00 20:26 - 01:04 - - 00:00
Minimum _ 17,2 C 3,8 C 0,0 UV-I 0,0 C 42 % 43 % 0 % 1034,8 hPa - 0,0 km/h (0 Bft) - - 0,0 km/h (0 Bft)
_ Max-Zeit 17:08 15:12 14:10 10:54 23:40 07:42 09:02 14:26 00:00 16:08 08:56 04:36 16:48
Maximum _ 22,9 C 18,9 C 4,1 UV-I 9,2 C 51 % 91 % 100 % 1039,3 hPa 0,0 l/m 16,5 km/h
W-NW (3 Bft)
2 min 2 min 32,5 km/h
W (5 Bft)
Durchschnitt _ 19,4 C 11,6 C 0,9 UV-I 2,3 C 48 % 71 % 39 % 1036,3 hPa #0,0 l/m 4,4 km/h (1 Bft) #8:54 h #6 min. 5,8 km/h (2 Bft)
© 2012 W. Hausmann